<?xml version='1.0' encoding='UTF-8'?>
<gpx version="1.1" creator="https://www.komoot.de" xmlns="http://www.topografix.com/GPX/1/1" xmlns:xsi="http://www.w3.org/2001/XMLSchema-instance" xsi:schemaLocation="http://www.topografix.com/GPX/1/1 http://www.topografix.com/GPX/1/1/gpx.xsd">
  <metadata>
    <name>GPX Download: Heidentor (Carnuntum) – Donauuferweg Hainburg Runde von Hainburg an der Donau Ungartor</name>
    <author>
      <link href="https://www.komoot.de">
        <text>komoot</text>
        <type>text/html</type>
      </link>
    </author>
  </metadata>
  <wpt lat="48.148190" lon="16.948883">
    <name>Burg Hainburg</name>
    <sym>Flag, Blue</sym>
  </wpt>
  <wpt lat="48.050304" lon="17.047640">
    <name>Aussichtsturm in den Feldern</name>
    <sym>Flag, Blue</sym>
  </wpt>
  <wpt lat="48.110672" lon="16.851260">
    <name>Römisches Amphitheater Petronell🏟️Gladiatorschule Carnuntum</name>
    <sym>Flag, Blue</sym>
  </wpt>
  <wpt lat="48.104086" lon="16.854477">
    <name>Heidentor (Carnuntum)</name>
    <sym>Flag, Blue</sym>
  </wpt>
  <wpt lat="48.137684" lon="16.909004">
    <name>Basilika Mariä Himmelfahrt (Bad Deutsch-Altenburg)</name>
    <sym>Flag, Blue</sym>
  </wpt>
  <wpt lat="48.144699" lon="16.912290">
    <name>Weg nach Hainburg</name>
    <sym>Flag, Blue</sym>
  </wpt>
  <wpt lat="48.147046" lon="16.935750">
    <name>Donau bei Hainburg</name>
    <sym>Flag, Blue</sym>
  </wpt>
  <wpt lat="48.149174" lon="16.940066">
    <name>Donauuferweg Hainburg</name>
    <sym>Flag, Blue</sym>
  </wpt>
  <trk>
    <name>GPX Download: Heidentor (Carnuntum) – Donauuferweg Hainburg Runde von Hainburg an der Donau Ungartor</name>
    <trkseg>
      <trkpt lat="48.137940" lon="16.904493">
        <ele>148.431904</ele>
        <time>2026-05-06T10:46:54.293Z</time>
      </trkpt>
      <trkpt lat="48.137826" lon="16.904556">
        <ele>148.431904</ele>
        <time>2026-05-06T10:46:56.959Z</time>
      </trkpt>
      <trkpt lat="48.137769" lon="16.904529">
        <ele>148.431904</ele>
        <time>2026-05-06T10:46:58.269Z</time>
      </trkpt>
      <trkpt lat="48.137673" lon="16.904261">
        <ele>148.431904</ele>
        <time>2026-05-06T10:47:02.755Z</time>
      </trkpt>
      <trkpt lat="48.138447" lon="16.903633">
        <ele>148.232785</ele>
        <time>2026-05-06T10:47:21.961Z</time>
      </trkpt>
      <trkpt lat="48.139222" lon="16.903321">
        <ele>147.795157</ele>
        <time>2026-05-06T10:47:38.720Z</time>
      </trkpt>
      <trkpt lat="48.139430" lon="16.903301">
        <ele>147.681492</ele>
        <time>2026-05-06T10:47:42.896Z</time>
      </trkpt>
      <trkpt lat="48.139559" lon="16.903289">
        <ele>147.611007</ele>
        <time>2026-05-06T10:47:45.447Z</time>
      </trkpt>
      <trkpt lat="48.139879" lon="16.903263">
        <ele>147.443710</ele>
        <time>2026-05-06T10:47:51.502Z</time>
      </trkpt>
      <trkpt lat="48.140187" lon="16.903246">
        <ele>147.360558</ele>
        <time>2026-05-06T10:47:57.336Z</time>
      </trkpt>
      <trkpt lat="48.140305" lon="16.903237">
        <ele>147.328681</ele>
        <time>2026-05-06T10:47:59.562Z</time>
      </trkpt>
      <trkpt lat="48.140334" lon="16.903343">
        <ele>147.308055</ele>
        <time>2026-05-06T10:48:01.068Z</time>
      </trkpt>
      <trkpt lat="48.140368" lon="16.903373">
        <ele>147.297410</ele>
        <time>2026-05-06T10:48:01.788Z</time>
      </trkpt>
      <trkpt lat="48.140337" lon="16.903518">
        <ele>147.269998</ele>
        <time>2026-05-06T10:48:03.789Z</time>
      </trkpt>
      <trkpt lat="48.140336" lon="16.903733">
        <ele>147.231290</ele>
        <time>2026-05-06T10:48:06.620Z</time>
      </trkpt>
      <trkpt lat="48.140363" lon="16.903908">
        <ele>147.198952</ele>
        <time>2026-05-06T10:48:09.020Z</time>
      </trkpt>
      <trkpt lat="48.140419" lon="16.904078">
        <ele>147.164820</ele>
        <time>2026-05-06T10:48:11.713Z</time>
      </trkpt>
      <trkpt lat="48.140526" lon="16.904402">
        <ele>147.099736</ele>
        <time>2026-05-06T10:48:17.435Z</time>
      </trkpt>
      <trkpt lat="48.140765" lon="16.905142">
        <ele>146.995133</ele>
        <time>2026-05-06T10:48:30.856Z</time>
      </trkpt>
      <trkpt lat="48.140907" lon="16.905574">
        <ele>147.176581</ele>
        <time>2026-05-06T10:48:39.299Z</time>
      </trkpt>
      <trkpt lat="48.141067" lon="16.906080">
        <ele>147.387555</ele>
        <time>2026-05-06T10:48:49.248Z</time>
      </trkpt>
      <trkpt lat="48.141368" lon="16.907157">
        <ele>147.827503</ele>
        <time>2026-05-06T10:49:08.214Z</time>
      </trkpt>
      <trkpt lat="48.141416" lon="16.907396">
        <ele>147.921544</ele>
        <time>2026-05-06T10:49:11.890Z</time>
      </trkpt>
      <trkpt lat="48.141519" lon="16.908194">
        <ele>148.000581</ele>
        <time>2026-05-06T10:49:23.626Z</time>
      </trkpt>
      <trkpt lat="48.141567" lon="16.908937">
        <ele>148.022534</ele>
        <time>2026-05-06T10:49:35.355Z</time>
      </trkpt>
      <trkpt lat="48.141573" lon="16.910011">
        <ele>148.054119</ele>
        <time>2026-05-06T10:49:51.686Z</time>
      </trkpt>
      <trkpt lat="48.141538" lon="16.910413">
        <ele>148.003938</ele>
        <time>2026-05-06T10:49:57.277Z</time>
      </trkpt>
      <trkpt lat="48.141662" lon="16.910341">
        <ele>147.942739</ele>
        <time>2026-05-06T10:50:00.049Z</time>
      </trkpt>
      <trkpt lat="48.141777" lon="16.910249">
        <ele>147.882747</ele>
        <time>2026-05-06T10:50:02.801Z</time>
      </trkpt>
      <trkpt lat="48.142064" lon="16.910104">
        <ele>147.743364</ele>
        <time>2026-05-06T10:50:09.032Z</time>
      </trkpt>
      <trkpt lat="48.142567" lon="16.909984">
        <ele>147.508966</ele>
        <time>2026-05-06T10:50:19.443Z</time>
      </trkpt>
      <trkpt lat="48.142785" lon="16.909928">
        <ele>147.407178</ele>
        <time>2026-05-06T10:50:23.880Z</time>
      </trkpt>
      <trkpt lat="48.143058" lon="16.909817">
        <ele>147.277001</ele>
        <time>2026-05-06T10:50:29.550Z</time>
      </trkpt>
      <trkpt lat="48.143487" lon="16.909575">
        <ele>146.886543</ele>
        <time>2026-05-06T10:50:39.031Z</time>
      </trkpt>
      <trkpt lat="48.143625" lon="16.909570">
        <ele>146.754658</ele>
        <time>2026-05-06T10:50:41.958Z</time>
      </trkpt>
      <trkpt lat="48.143703" lon="16.909762">
        <ele>146.611355</ele>
        <time>2026-05-06T10:50:45.161Z</time>
      </trkpt>
      <trkpt lat="48.143799" lon="16.910057">
        <ele>146.402116</ele>
        <time>2026-05-06T10:50:49.604Z</time>
      </trkpt>
      <trkpt lat="48.144843" lon="16.912655">
        <ele>144.306089</ele>
        <time>2026-05-06T10:51:27.044Z</time>
      </trkpt>
      <trkpt lat="48.144959" lon="16.913005">
        <ele>144.018210</ele>
        <time>2026-05-06T10:51:32.124Z</time>
      </trkpt>
      <trkpt lat="48.145088" lon="16.913724">
        <ele>143.509104</ele>
        <time>2026-05-06T10:51:42.134Z</time>
      </trkpt>
      <trkpt lat="48.145146" lon="16.914253">
        <ele>143.377698</ele>
        <time>2026-05-06T10:51:49.686Z</time>
      </trkpt>
      <trkpt lat="48.145156" lon="16.918585">
        <ele>142.472314</ele>
        <time>2026-05-06T10:52:50.843Z</time>
      </trkpt>
      <trkpt lat="48.145266" lon="16.921791">
        <ele>142.384253</ele>
        <time>2026-05-06T10:53:37.615Z</time>
      </trkpt>
      <trkpt lat="48.145200" lon="16.923286">
        <ele>142.799094</ele>
        <time>2026-05-06T10:54:02.734Z</time>
      </trkpt>
      <trkpt lat="48.145193" lon="16.924157">
        <ele>143.040275</ele>
        <time>2026-05-06T10:54:16.911Z</time>
      </trkpt>
      <trkpt lat="48.145368" lon="16.925115">
        <ele>143.055281</ele>
        <time>2026-05-06T10:54:31.640Z</time>
      </trkpt>
      <trkpt lat="48.145337" lon="16.926873">
        <ele>142.923047</ele>
        <time>2026-05-06T10:54:56.516Z</time>
      </trkpt>
      <trkpt lat="48.145295" lon="16.927449">
        <ele>142.988003</ele>
        <time>2026-05-06T10:55:04.827Z</time>
      </trkpt>
      <trkpt lat="48.145221" lon="16.928785">
        <ele>143.269144</ele>
        <time>2026-05-06T10:55:25.074Z</time>
      </trkpt>
      <trkpt lat="48.145247" lon="16.931044">
        <ele>144.057925</ele>
        <time>2026-05-06T10:56:03.640Z</time>
      </trkpt>
      <trkpt lat="48.145250" lon="16.931435">
        <ele>144.235757</ele>
        <time>2026-05-06T10:56:10.462Z</time>
      </trkpt>
      <trkpt lat="48.145299" lon="16.931892">
        <ele>144.446259</ele>
        <time>2026-05-06T10:56:18.263Z</time>
      </trkpt>
      <trkpt lat="48.145362" lon="16.932180">
        <ele>144.584095</ele>
        <time>2026-05-06T10:56:23.228Z</time>
      </trkpt>
      <trkpt lat="48.145453" lon="16.932451">
        <ele>144.698724</ele>
        <time>2026-05-06T10:56:28.120Z</time>
      </trkpt>
      <trkpt lat="48.146448" lon="16.934659">
        <ele>144.672917</ele>
        <time>2026-05-06T10:57:06.125Z</time>
      </trkpt>
      <trkpt lat="48.146505" lon="16.934866">
        <ele>144.765229</ele>
        <time>2026-05-06T10:57:09.475Z</time>
      </trkpt>
      <trkpt lat="48.147574" lon="16.936655">
        <ele>145.755196</ele>
        <time>2026-05-06T10:57:50.157Z</time>
      </trkpt>
      <trkpt lat="48.147686" lon="16.936842">
        <ele>145.775660</ele>
        <time>2026-05-06T10:57:54.763Z</time>
      </trkpt>
      <trkpt lat="48.147959" lon="16.937300">
        <ele>145.773234</ele>
        <time>2026-05-06T10:58:05.127Z</time>
      </trkpt>
      <trkpt lat="48.148076" lon="16.937504">
        <ele>145.772172</ele>
        <time>2026-05-06T10:58:09.261Z</time>
      </trkpt>
      <trkpt lat="48.148374" lon="16.938193">
        <ele>145.768929</ele>
        <time>2026-05-06T10:58:20.696Z</time>
      </trkpt>
      <trkpt lat="48.148785" lon="16.939253">
        <ele>145.536172</ele>
        <time>2026-05-06T10:58:37.851Z</time>
      </trkpt>
      <trkpt lat="48.149146" lon="16.940244">
        <ele>144.939062</ele>
        <time>2026-05-06T10:58:51.437Z</time>
      </trkpt>
      <trkpt lat="48.149377" lon="16.940858">
        <ele>144.566289</ele>
        <time>2026-05-06T10:59:00.663Z</time>
      </trkpt>
      <trkpt lat="48.149682" lon="16.941668">
        <ele>144.717117</ele>
        <time>2026-05-06T10:59:15.615Z</time>
      </trkpt>
      <trkpt lat="48.149830" lon="16.942081">
        <ele>145.068852</ele>
        <time>2026-05-06T10:59:22.468Z</time>
      </trkpt>
      <trkpt lat="48.149916" lon="16.942401">
        <ele>145.327688</ele>
        <time>2026-05-06T10:59:27.618Z</time>
      </trkpt>
      <trkpt lat="48.149981" lon="16.942668">
        <ele>145.540932</ele>
        <time>2026-05-06T10:59:32.469Z</time>
      </trkpt>
      <trkpt lat="48.150031" lon="16.943009">
        <ele>145.802883</ele>
        <time>2026-05-06T10:59:39.867Z</time>
      </trkpt>
      <trkpt lat="48.150344" lon="16.943663">
        <ele>146.460761</ele>
        <time>2026-05-06T10:59:57.847Z</time>
      </trkpt>
      <trkpt lat="48.150370" lon="16.943771">
        <ele>146.652740</ele>
        <time>2026-05-06T11:00:00.539Z</time>
      </trkpt>
      <trkpt lat="48.150387" lon="16.943872">
        <ele>146.826910</ele>
        <time>2026-05-06T11:00:02.622Z</time>
      </trkpt>
      <trkpt lat="48.150369" lon="16.944020">
        <ele>147.078454</ele>
        <time>2026-05-06T11:00:05.862Z</time>
      </trkpt>
      <trkpt lat="48.150122" lon="16.944224">
        <ele>147.785237</ele>
        <time>2026-05-06T11:00:13.701Z</time>
      </trkpt>
      <trkpt lat="48.149975" lon="16.944318">
        <ele>148.185772</ele>
        <time>2026-05-06T11:00:18.117Z</time>
      </trkpt>
      <trkpt lat="48.149935" lon="16.944367">
        <ele>148.315242</ele>
        <time>2026-05-06T11:00:19.541Z</time>
      </trkpt>
      <trkpt lat="48.149883" lon="16.944681">
        <ele>148.856207</ele>
        <time>2026-05-06T11:00:26.394Z</time>
      </trkpt>
      <trkpt lat="48.149868" lon="16.944895">
        <ele>149.216001</ele>
        <time>2026-05-06T11:00:31.219Z</time>
      </trkpt>
      <trkpt lat="48.150156" lon="16.944979">
        <ele>149.951319</ele>
        <time>2026-05-06T11:00:41.957Z</time>
      </trkpt>
      <trkpt lat="48.150245" lon="16.945035">
        <ele>150.193225</ele>
        <time>2026-05-06T11:00:45.390Z</time>
      </trkpt>
      <trkpt lat="48.150307" lon="16.945169">
        <ele>150.465889</ele>
        <time>2026-05-06T11:00:49.127Z</time>
      </trkpt>
      <trkpt lat="48.150315" lon="16.945314">
        <ele>150.709166</ele>
        <time>2026-05-06T11:00:52.191Z</time>
      </trkpt>
      <trkpt lat="48.150276" lon="16.945455">
        <ele>150.970426</ele>
        <time>2026-05-06T11:00:55.456Z</time>
      </trkpt>
      <trkpt lat="48.150142" lon="16.945834">
        <ele>151.733773</ele>
        <time>2026-05-06T11:01:04.934Z</time>
      </trkpt>
      <trkpt lat="48.149952" lon="16.946317">
        <ele>152.731637</ele>
        <time>2026-05-06T11:01:17.758Z</time>
      </trkpt>
      <trkpt lat="48.149445" lon="16.947610">
        <ele>155.400742</ele>
        <time>2026-05-06T11:01:51.336Z</time>
      </trkpt>
      <trkpt lat="48.149157" lon="16.948339">
        <ele>156.385096</ele>
        <time>2026-05-06T11:02:07.229Z</time>
      </trkpt>
      <trkpt lat="48.148667" lon="16.947885">
        <ele>157.273213</ele>
        <time>2026-05-06T11:02:22.882Z</time>
      </trkpt>
      <trkpt lat="48.148167" lon="16.948856">
        <ele>158.580460</ele>
        <time>2026-05-06T11:02:45.188Z</time>
      </trkpt>
      <trkpt lat="48.147966" lon="16.949246">
        <ele>159.334124</ele>
        <time>2026-05-06T11:02:55.411Z</time>
      </trkpt>
      <trkpt lat="48.147770" lon="16.949918">
        <ele>160.455752</ele>
        <time>2026-05-06T11:03:11.375Z</time>
      </trkpt>
      <trkpt lat="48.147355" lon="16.951278">
        <ele>162.738793</ele>
        <time>2026-05-06T11:03:43.500Z</time>
      </trkpt>
      <trkpt lat="48.147241" lon="16.951684">
        <ele>163.397069</ele>
        <time>2026-05-06T11:03:52.732Z</time>
      </trkpt>
      <trkpt lat="48.147093" lon="16.953055">
        <ele>165.472578</ele>
        <time>2026-05-06T11:04:21.427Z</time>
      </trkpt>
      <trkpt lat="48.146804" lon="16.955349">
        <ele>168.869820</ele>
        <time>2026-05-06T11:05:09.520Z</time>
      </trkpt>
      <trkpt lat="48.146621" lon="16.956878">
        <ele>170.935135</ele>
        <time>2026-05-06T11:05:41.727Z</time>
      </trkpt>
      <trkpt lat="48.146579" lon="16.957025">
        <ele>171.104772</ele>
        <time>2026-05-06T11:05:44.981Z</time>
      </trkpt>
      <trkpt lat="48.146639" lon="16.957191">
        <ele>171.305048</ele>
        <time>2026-05-06T11:05:48.768Z</time>
      </trkpt>
      <trkpt lat="48.146685" lon="16.957863">
        <ele>172.021665</ele>
        <time>2026-05-06T11:06:01.986Z</time>
      </trkpt>
      <trkpt lat="48.146806" lon="16.958483">
        <ele>172.706934</ele>
        <time>2026-05-06T11:06:14.002Z</time>
      </trkpt>
      <trkpt lat="48.147507" lon="16.961204">
        <ele>174.562557</ele>
        <time>2026-05-06T11:07:04.363Z</time>
      </trkpt>
      <trkpt lat="48.147881" lon="16.962750">
        <ele>174.691177</ele>
        <time>2026-05-06T11:07:29.491Z</time>
      </trkpt>
      <trkpt lat="48.148630" lon="16.965918">
        <ele>173.786633</ele>
        <time>2026-05-06T11:08:16.334Z</time>
      </trkpt>
      <trkpt lat="48.148842" lon="16.967110">
        <ele>173.100913</ele>
        <time>2026-05-06T11:08:31.893Z</time>
      </trkpt>
      <trkpt lat="48.148753" lon="16.967130">
        <ele>172.999528</ele>
        <time>2026-05-06T11:08:33.559Z</time>
      </trkpt>
      <trkpt lat="48.145778" lon="16.966377">
        <ele>169.723259</ele>
        <time>2026-05-06T11:09:30.908Z</time>
      </trkpt>
      <trkpt lat="48.145734" lon="16.966410">
        <ele>169.671527</ele>
        <time>2026-05-06T11:09:31.884Z</time>
      </trkpt>
      <trkpt lat="48.145605" lon="16.966821">
        <ele>169.440045</ele>
        <time>2026-05-06T11:09:37.942Z</time>
      </trkpt>
      <trkpt lat="48.144902" lon="16.969523">
        <ele>168.138140</ele>
        <time>2026-05-06T11:10:17.843Z</time>
      </trkpt>
      <trkpt lat="48.144610" lon="16.970776">
        <ele>167.147493</ele>
        <time>2026-05-06T11:10:35.033Z</time>
      </trkpt>
      <trkpt lat="48.144550" lon="16.971117">
        <ele>166.884266</ele>
        <time>2026-05-06T11:10:39.378Z</time>
      </trkpt>
      <trkpt lat="48.144431" lon="16.972201">
        <ele>165.705227</ele>
        <time>2026-05-06T11:10:52.457Z</time>
      </trkpt>
      <trkpt lat="48.144363" lon="16.974539">
        <ele>162.490991</ele>
        <time>2026-05-06T11:11:19.470Z</time>
      </trkpt>
      <trkpt lat="48.143865" lon="16.977244">
        <ele>158.877991</ele>
        <time>2026-05-06T11:11:52.662Z</time>
      </trkpt>
      <trkpt lat="48.143358" lon="16.980762">
        <ele>154.630277</ele>
        <time>2026-05-06T11:12:35.949Z</time>
      </trkpt>
      <trkpt lat="48.143344" lon="16.980895">
        <ele>154.462097</ele>
        <time>2026-05-06T11:12:37.529Z</time>
      </trkpt>
      <trkpt lat="48.143363" lon="16.981175">
        <ele>154.110555</ele>
        <time>2026-05-06T11:12:40.822Z</time>
      </trkpt>
      <trkpt lat="48.143342" lon="16.981250">
        <ele>154.008962</ele>
        <time>2026-05-06T11:12:41.766Z</time>
      </trkpt>
      <trkpt lat="48.143231" lon="16.981406">
        <ele>153.724108</ele>
        <time>2026-05-06T11:12:44.421Z</time>
      </trkpt>
      <trkpt lat="48.143191" lon="16.981511">
        <ele>153.573087</ele>
        <time>2026-05-06T11:12:45.816Z</time>
      </trkpt>
      <trkpt lat="48.142125" lon="16.986126">
        <ele>148.217223</ele>
        <time>2026-05-06T11:13:43.330Z</time>
      </trkpt>
      <trkpt lat="48.141869" lon="16.987748">
        <ele>147.503451</ele>
        <time>2026-05-06T11:14:09.314Z</time>
      </trkpt>
      <trkpt lat="48.141776" lon="16.988166">
        <ele>147.530649</ele>
        <time>2026-05-06T11:14:16.775Z</time>
      </trkpt>
      <trkpt lat="48.141635" lon="16.988634">
        <ele>147.562344</ele>
        <time>2026-05-06T11:14:25.168Z</time>
      </trkpt>
      <trkpt lat="48.140725" lon="16.991316">
        <ele>146.964936</ele>
        <time>2026-05-06T11:15:06.753Z</time>
      </trkpt>
      <trkpt lat="48.140605" lon="16.991712">
        <ele>146.802880</ele>
        <time>2026-05-06T11:15:12.312Z</time>
      </trkpt>
      <trkpt lat="48.140254" lon="16.993542">
        <ele>146.765499</ele>
        <time>2026-05-06T11:15:38.110Z</time>
      </trkpt>
      <trkpt lat="48.140122" lon="16.993832">
        <ele>146.797788</ele>
        <time>2026-05-06T11:15:43.828Z</time>
      </trkpt>
      <trkpt lat="48.140031" lon="16.994129">
        <ele>146.827848</ele>
        <time>2026-05-06T11:15:49.375Z</time>
      </trkpt>
      <trkpt lat="48.139942" lon="16.994804">
        <ele>146.974630</ele>
        <time>2026-05-06T11:16:01.850Z</time>
      </trkpt>
      <trkpt lat="48.139917" lon="16.994880">
        <ele>147.042789</ele>
        <time>2026-05-06T11:16:03.460Z</time>
      </trkpt>
      <trkpt lat="48.139833" lon="16.994963">
        <ele>147.164077</ele>
        <time>2026-05-06T11:16:06.314Z</time>
      </trkpt>
      <trkpt lat="48.139601" lon="16.994927">
        <ele>147.445235</ele>
        <time>2026-05-06T11:16:13.082Z</time>
      </trkpt>
      <trkpt lat="48.139311" lon="16.996013">
        <ele>148.386179</ele>
        <time>2026-05-06T11:16:35.292Z</time>
      </trkpt>
      <trkpt lat="48.138565" lon="16.998380">
        <ele>149.230334</ele>
        <time>2026-05-06T11:17:18.750Z</time>
      </trkpt>
      <trkpt lat="48.138112" lon="16.999972">
        <ele>148.722111</ele>
        <time>2026-05-06T11:17:41.355Z</time>
      </trkpt>
      <trkpt lat="48.138052" lon="17.000272">
        <ele>148.495821</ele>
        <time>2026-05-06T11:17:45.218Z</time>
      </trkpt>
      <trkpt lat="48.137977" lon="17.000645">
        <ele>148.214343</ele>
        <time>2026-05-06T11:17:50.029Z</time>
      </trkpt>
      <trkpt lat="48.137915" lon="17.001093">
        <ele>147.883754</ele>
        <time>2026-05-06T11:17:55.670Z</time>
      </trkpt>
      <trkpt lat="48.137880" lon="17.001969">
        <ele>147.410792</ele>
        <time>2026-05-06T11:18:06.696Z</time>
      </trkpt>
      <trkpt lat="48.137815" lon="17.002694">
        <ele>147.566197</ele>
        <time>2026-05-06T11:18:16.799Z</time>
      </trkpt>
      <trkpt lat="48.137759" lon="17.003155">
        <ele>147.665743</ele>
        <time>2026-05-06T11:18:24.259Z</time>
      </trkpt>
      <trkpt lat="48.137678" lon="17.003779">
        <ele>147.800792</ele>
        <time>2026-05-06T11:18:35.203Z</time>
      </trkpt>
      <trkpt lat="48.137613" lon="17.004075">
        <ele>147.866993</ele>
        <time>2026-05-06T11:18:40.775Z</time>
      </trkpt>
      <trkpt lat="48.137232" lon="17.005175">
        <ele>148.316706</ele>
        <time>2026-05-06T11:19:03.534Z</time>
      </trkpt>
      <trkpt lat="48.137187" lon="17.005356">
        <ele>148.399426</ele>
        <time>2026-05-06T11:19:07.080Z</time>
      </trkpt>
      <trkpt lat="48.137028" lon="17.006021">
        <ele>148.701945</ele>
        <time>2026-05-06T11:19:19.270Z</time>
      </trkpt>
      <trkpt lat="48.136879" lon="17.006689">
        <ele>149.003579</ele>
        <time>2026-05-06T11:19:29.790Z</time>
      </trkpt>
      <trkpt lat="48.136776" lon="17.007127">
        <ele>149.025794</ele>
        <time>2026-05-06T11:19:36.147Z</time>
      </trkpt>
      <trkpt lat="48.136627" lon="17.007628">
        <ele>148.851632</ele>
        <time>2026-05-06T11:19:43.671Z</time>
      </trkpt>
      <trkpt lat="48.136473" lon="17.007991">
        <ele>148.715051</ele>
        <time>2026-05-06T11:19:49.458Z</time>
      </trkpt>
      <trkpt lat="48.135926" lon="17.009281">
        <ele>148.253494</ele>
        <time>2026-05-06T11:20:09.764Z</time>
      </trkpt>
      <trkpt lat="48.135695" lon="17.009796">
        <ele>148.358801</ele>
        <time>2026-05-06T11:20:19.179Z</time>
      </trkpt>
      <trkpt lat="48.135341" lon="17.010509">
        <ele>148.509618</ele>
        <time>2026-05-06T11:20:33.373Z</time>
      </trkpt>
      <trkpt lat="48.134786" lon="17.011468">
        <ele>148.642823</ele>
        <time>2026-05-06T11:20:54.599Z</time>
      </trkpt>
      <trkpt lat="48.134619" lon="17.011797">
        <ele>148.455814</ele>
        <time>2026-05-06T11:21:01.057Z</time>
      </trkpt>
      <trkpt lat="48.134351" lon="17.012487">
        <ele>148.094622</ele>
        <time>2026-05-06T11:21:12.039Z</time>
      </trkpt>
      <trkpt lat="48.134174" lon="17.013167">
        <ele>147.764400</ele>
        <time>2026-05-06T11:21:21.063Z</time>
      </trkpt>
      <trkpt lat="48.134040" lon="17.013862">
        <ele>147.385414</ele>
        <time>2026-05-06T11:21:29.987Z</time>
      </trkpt>
      <trkpt lat="48.133997" lon="17.014117">
        <ele>147.133275</ele>
        <time>2026-05-06T11:21:33.267Z</time>
      </trkpt>
      <trkpt lat="48.133922" lon="17.014560">
        <ele>146.695138</ele>
        <time>2026-05-06T11:21:39.090Z</time>
      </trkpt>
      <trkpt lat="48.133785" lon="17.015015">
        <ele>146.216612</ele>
        <time>2026-05-06T11:21:44.853Z</time>
      </trkpt>
      <trkpt lat="48.133584" lon="17.015471">
        <ele>145.692723</ele>
        <time>2026-05-06T11:21:51.370Z</time>
      </trkpt>
      <trkpt lat="48.133360" lon="17.015858">
        <ele>145.201630</ele>
        <time>2026-05-06T11:21:58.004Z</time>
      </trkpt>
      <trkpt lat="48.133389" lon="17.015904">
        <ele>145.140967</ele>
        <time>2026-05-06T11:21:58.831Z</time>
      </trkpt>
      <trkpt lat="48.133455" lon="17.016013">
        <ele>144.999875</ele>
        <time>2026-05-06T11:22:00.719Z</time>
      </trkpt>
      <trkpt lat="48.133069" lon="17.016844">
        <ele>144.494458</ele>
        <time>2026-05-06T11:22:13.788Z</time>
      </trkpt>
      <trkpt lat="48.132637" lon="17.017497">
        <ele>144.084095</ele>
        <time>2026-05-06T11:22:25.680Z</time>
      </trkpt>
      <trkpt lat="48.131586" lon="17.019974">
        <ele>144.059746</ele>
        <time>2026-05-06T11:23:08.778Z</time>
      </trkpt>
      <trkpt lat="48.131429" lon="17.020281">
        <ele>144.127624</ele>
        <time>2026-05-06T11:23:15.020Z</time>
      </trkpt>
      <trkpt lat="48.130881" lon="17.021142">
        <ele>144.526134</ele>
        <time>2026-05-06T11:23:37.780Z</time>
      </trkpt>
      <trkpt lat="48.130705" lon="17.021460">
        <ele>144.681203</ele>
        <time>2026-05-06T11:23:45.413Z</time>
      </trkpt>
      <trkpt lat="48.130635" lon="17.021477">
        <ele>144.721086</ele>
        <time>2026-05-06T11:23:47.237Z</time>
      </trkpt>
      <trkpt lat="48.130536" lon="17.021398">
        <ele>144.784169</ele>
        <time>2026-05-06T11:23:50.101Z</time>
      </trkpt>
      <trkpt lat="48.130441" lon="17.021375">
        <ele>144.838292</ele>
        <time>2026-05-06T11:23:52.479Z</time>
      </trkpt>
      <trkpt lat="48.130380" lon="17.021393">
        <ele>144.873258</ele>
        <time>2026-05-06T11:23:53.934Z</time>
      </trkpt>
      <trkpt lat="48.130307" lon="17.021478">
        <ele>144.925254</ele>
        <time>2026-05-06T11:23:56.124Z</time>
      </trkpt>
      <trkpt lat="48.129927" lon="17.022060">
        <ele>145.037572</ele>
        <time>2026-05-06T11:24:07.601Z</time>
      </trkpt>
      <trkpt lat="48.129639" lon="17.022561">
        <ele>144.315576</ele>
        <time>2026-05-06T11:24:15.880Z</time>
      </trkpt>
      <trkpt lat="48.129403" lon="17.023036">
        <ele>143.668974</ele>
        <time>2026-05-06T11:24:22.520Z</time>
      </trkpt>
      <trkpt lat="48.129116" lon="17.023713">
        <ele>142.793215</ele>
        <time>2026-05-06T11:24:31.674Z</time>
      </trkpt>
      <trkpt lat="48.128001" lon="17.027101">
        <ele>140.069003</ele>
        <time>2026-05-06T11:25:19.750Z</time>
      </trkpt>
      <trkpt lat="48.126997" lon="17.030262">
        <ele>139.461462</ele>
        <time>2026-05-06T11:26:10.794Z</time>
      </trkpt>
      <trkpt lat="48.126729" lon="17.031020">
        <ele>139.388512</ele>
        <time>2026-05-06T11:26:23.262Z</time>
      </trkpt>
      <trkpt lat="48.125421" lon="17.035041">
        <ele>138.903450</ele>
        <time>2026-05-06T11:27:27.754Z</time>
      </trkpt>
      <trkpt lat="48.125248" lon="17.035689">
        <ele>138.827256</ele>
        <time>2026-05-06T11:27:37.768Z</time>
      </trkpt>
      <trkpt lat="48.124953" lon="17.036468">
        <ele>138.749242</ele>
        <time>2026-05-06T11:27:50.675Z</time>
      </trkpt>
      <trkpt lat="48.123826" lon="17.039943">
        <ele>138.646835</ele>
        <time>2026-05-06T11:28:47.734Z</time>
      </trkpt>
      <trkpt lat="48.123638" lon="17.040619">
        <ele>138.618828</ele>
        <time>2026-05-06T11:28:58.516Z</time>
      </trkpt>
      <trkpt lat="48.123416" lon="17.041201">
        <ele>138.591616</ele>
        <time>2026-05-06T11:29:08.329Z</time>
      </trkpt>
      <trkpt lat="48.122503" lon="17.044065">
        <ele>138.479907</ele>
        <time>2026-05-06T11:29:54.676Z</time>
      </trkpt>
      <trkpt lat="48.122060" lon="17.045390">
        <ele>138.554678</ele>
        <time>2026-05-06T11:30:17.183Z</time>
      </trkpt>
      <trkpt lat="48.121890" lon="17.046034">
        <ele>138.588875</ele>
        <time>2026-05-06T11:30:27.802Z</time>
      </trkpt>
      <trkpt lat="48.121729" lon="17.046834">
        <ele>138.620265</ele>
        <time>2026-05-06T11:30:40.506Z</time>
      </trkpt>
      <trkpt lat="48.121613" lon="17.047881">
        <ele>138.660136</ele>
        <time>2026-05-06T11:30:56.476Z</time>
      </trkpt>
      <trkpt lat="48.121598" lon="17.048321">
        <ele>138.676688</ele>
        <time>2026-05-06T11:31:03.030Z</time>
      </trkpt>
      <trkpt lat="48.121613" lon="17.049161">
        <ele>138.647009</ele>
        <time>2026-05-06T11:31:15.419Z</time>
      </trkpt>
      <trkpt lat="48.121845" lon="17.055138">
        <ele>137.988828</ele>
        <time>2026-05-06T11:32:41.895Z</time>
      </trkpt>
      <trkpt lat="48.121938" lon="17.056208">
        <ele>137.776762</ele>
        <time>2026-05-06T11:32:56.844Z</time>
      </trkpt>
      <trkpt lat="48.121781" lon="17.056188">
        <ele>137.730372</ele>
        <time>2026-05-06T11:33:00.121Z</time>
      </trkpt>
      <trkpt lat="48.121696" lon="17.056191">
        <ele>137.705341</ele>
        <time>2026-05-06T11:33:01.879Z</time>
      </trkpt>
      <trkpt lat="48.121557" lon="17.056195">
        <ele>137.665586</ele>
        <time>2026-05-06T11:33:04.780Z</time>
      </trkpt>
      <trkpt lat="48.120776" lon="17.058678">
        <ele>137.145852</ele>
        <time>2026-05-06T11:33:43.834Z</time>
      </trkpt>
      <trkpt lat="48.120142" lon="17.060644">
        <ele>136.534911</ele>
        <time>2026-05-06T11:34:14.297Z</time>
      </trkpt>
      <trkpt lat="48.119192" lon="17.060175">
        <ele>136.184995</ele>
        <time>2026-05-06T11:34:34.695Z</time>
      </trkpt>
      <trkpt lat="48.118929" lon="17.060015">
        <ele>136.092025</ele>
        <time>2026-05-06T11:34:40.593Z</time>
      </trkpt>
      <trkpt lat="48.118090" lon="17.059338">
        <ele>135.858364</ele>
        <time>2026-05-06T11:35:01.335Z</time>
      </trkpt>
      <trkpt lat="48.117999" lon="17.059262">
        <ele>135.866159</ele>
        <time>2026-05-06T11:35:03.659Z</time>
      </trkpt>
      <trkpt lat="48.116831" lon="17.058272">
        <ele>135.966572</ele>
        <time>2026-05-06T11:35:33.746Z</time>
      </trkpt>
      <trkpt lat="48.115000" lon="17.055899">
        <ele>136.445707</ele>
        <time>2026-05-06T11:36:30.409Z</time>
      </trkpt>
      <trkpt lat="48.114794" lon="17.055684">
        <ele>136.443193</ele>
        <time>2026-05-06T11:36:36.111Z</time>
      </trkpt>
      <trkpt lat="48.114441" lon="17.055388">
        <ele>136.439140</ele>
        <time>2026-05-06T11:36:45.154Z</time>
      </trkpt>
      <trkpt lat="48.112288" lon="17.053561">
        <ele>135.997009</ele>
        <time>2026-05-06T11:37:37.857Z</time>
      </trkpt>
      <trkpt lat="48.111615" lon="17.052995">
        <ele>135.870492</ele>
        <time>2026-05-06T11:37:54.267Z</time>
      </trkpt>
      <trkpt lat="48.108866" lon="17.050688">
        <ele>135.497212</ele>
        <time>2026-05-06T11:39:03.411Z</time>
      </trkpt>
      <trkpt lat="48.107824" lon="17.049714">
        <ele>135.364859</ele>
        <time>2026-05-06T11:39:30.209Z</time>
      </trkpt>
      <trkpt lat="48.107313" lon="17.049211">
        <ele>135.315093</ele>
        <time>2026-05-06T11:39:43.428Z</time>
      </trkpt>
      <trkpt lat="48.106774" lon="17.048683">
        <ele>135.274150</ele>
        <time>2026-05-06T11:39:57.175Z</time>
      </trkpt>
      <trkpt lat="48.106741" lon="17.048650">
        <ele>135.271628</ele>
        <time>2026-05-06T11:39:58.036Z</time>
      </trkpt>
      <trkpt lat="48.106133" lon="17.048036">
        <ele>135.225011</ele>
        <time>2026-05-06T11:40:14.497Z</time>
      </trkpt>
      <trkpt lat="48.105372" lon="17.047306">
        <ele>135.335193</ele>
        <time>2026-05-06T11:40:35.371Z</time>
      </trkpt>
      <trkpt lat="48.105305" lon="17.047239">
        <ele>135.345295</ele>
        <time>2026-05-06T11:40:37.234Z</time>
      </trkpt>
      <trkpt lat="48.105205" lon="17.047433">
        <ele>135.365815</ele>
        <time>2026-05-06T11:40:41.002Z</time>
      </trkpt>
      <trkpt lat="48.104971" lon="17.047761">
        <ele>135.406005</ele>
        <time>2026-05-06T11:40:48.439Z</time>
      </trkpt>
      <trkpt lat="48.104645" lon="17.048167">
        <ele>135.455624</ele>
        <time>2026-05-06T11:40:57.982Z</time>
      </trkpt>
      <trkpt lat="48.104610" lon="17.048361">
        <ele>135.466288</ele>
        <time>2026-05-06T11:41:00.929Z</time>
      </trkpt>
      <trkpt lat="48.104702" lon="17.048752">
        <ele>135.488286</ele>
        <time>2026-05-06T11:41:06.849Z</time>
      </trkpt>
      <trkpt lat="48.104758" lon="17.048947">
        <ele>135.499550</ele>
        <time>2026-05-06T11:41:09.839Z</time>
      </trkpt>
      <trkpt lat="48.097559" lon="17.061292">
        <ele>136.280113</ele>
        <time>2026-05-06T11:45:17.155Z</time>
      </trkpt>
      <trkpt lat="48.096291" lon="17.062671">
        <ele>136.316216</ele>
        <time>2026-05-06T11:45:52.378Z</time>
      </trkpt>
      <trkpt lat="48.095959" lon="17.062117">
        <ele>136.404003</ele>
        <time>2026-05-06T11:46:04.163Z</time>
      </trkpt>
      <trkpt lat="48.094962" lon="17.063491">
        <ele>136.845892</ele>
        <time>2026-05-06T11:46:36.941Z</time>
      </trkpt>
      <trkpt lat="48.094677" lon="17.063809">
        <ele>137.027651</ele>
        <time>2026-05-06T11:46:45.732Z</time>
      </trkpt>
      <trkpt lat="48.094293" lon="17.063989">
        <ele>137.233415</ele>
        <time>2026-05-06T11:46:55.835Z</time>
      </trkpt>
      <trkpt lat="48.093849" lon="17.064220">
        <ele>137.470209</ele>
        <time>2026-05-06T11:47:06.853Z</time>
      </trkpt>
      <trkpt lat="48.093825" lon="17.064180">
        <ele>137.484846</ele>
        <time>2026-05-06T11:47:07.666Z</time>
      </trkpt>
      <trkpt lat="48.093769" lon="17.064082">
        <ele>137.519953</ele>
        <time>2026-05-06T11:47:09.686Z</time>
      </trkpt>
      <trkpt lat="48.093713" lon="17.063991">
        <ele>137.553634</ele>
        <time>2026-05-06T11:47:11.592Z</time>
      </trkpt>
      <trkpt lat="48.093657" lon="17.063886">
        <ele>137.590210</ele>
        <time>2026-05-06T11:47:13.721Z</time>
      </trkpt>
      <trkpt lat="48.093633" lon="17.063840">
        <ele>137.606099</ele>
        <time>2026-05-06T11:47:14.624Z</time>
      </trkpt>
      <trkpt lat="48.093605" lon="17.063788">
        <ele>137.624281</ele>
        <time>2026-05-06T11:47:15.707Z</time>
      </trkpt>
      <trkpt lat="48.093016" lon="17.064479">
        <ele>137.929243</ele>
        <time>2026-05-06T11:47:34.432Z</time>
      </trkpt>
      <trkpt lat="48.092822" lon="17.064689">
        <ele>138.026808</ele>
        <time>2026-05-06T11:47:40.282Z</time>
      </trkpt>
      <trkpt lat="48.092512" lon="17.064917">
        <ele>138.167569</ele>
        <time>2026-05-06T11:47:48.067Z</time>
      </trkpt>
      <trkpt lat="48.092070" lon="17.065218">
        <ele>138.152780</ele>
        <time>2026-05-06T11:47:58.786Z</time>
      </trkpt>
      <trkpt lat="48.091659" lon="17.065451">
        <ele>138.115741</ele>
        <time>2026-05-06T11:48:08.391Z</time>
      </trkpt>
      <trkpt lat="48.091513" lon="17.065533">
        <ele>138.102599</ele>
        <time>2026-05-06T11:48:11.745Z</time>
      </trkpt>
      <trkpt lat="48.091433" lon="17.065579">
        <ele>138.095377</ele>
        <time>2026-05-06T11:48:13.561Z</time>
      </trkpt>
      <trkpt lat="48.091337" lon="17.065633">
        <ele>138.086734</ele>
        <time>2026-05-06T11:48:15.759Z</time>
      </trkpt>
      <trkpt lat="48.091187" lon="17.065708">
        <ele>138.073406</ele>
        <time>2026-05-06T11:48:19.130Z</time>
      </trkpt>
      <trkpt lat="48.091140" lon="17.065736">
        <ele>138.069143</ele>
        <time>2026-05-06T11:48:20.205Z</time>
      </trkpt>
      <trkpt lat="48.089347" lon="17.066583">
        <ele>137.812865</ele>
        <time>2026-05-06T11:49:01.105Z</time>
      </trkpt>
      <trkpt lat="48.089234" lon="17.066632">
        <ele>137.795310</ele>
        <time>2026-05-06T11:49:03.656Z</time>
      </trkpt>
      <trkpt lat="48.087924" lon="17.067187">
        <ele>137.439573</ele>
        <time>2026-05-06T11:49:33.090Z</time>
      </trkpt>
      <trkpt lat="48.087786" lon="17.067398">
        <ele>137.384778</ele>
        <time>2026-05-06T11:49:37.106Z</time>
      </trkpt>
      <trkpt lat="48.087279" lon="17.067531">
        <ele>137.236427</ele>
        <time>2026-05-06T11:49:47.622Z</time>
      </trkpt>
      <trkpt lat="48.086863" lon="17.067669">
        <ele>137.095228</ele>
        <time>2026-05-06T11:49:56.448Z</time>
      </trkpt>
      <trkpt lat="48.086764" lon="17.067702">
        <ele>137.061618</ele>
        <time>2026-05-06T11:49:58.568Z</time>
      </trkpt>
      <trkpt lat="48.086471" lon="17.067771">
        <ele>136.963329</ele>
        <time>2026-05-06T11:50:04.713Z</time>
      </trkpt>
      <trkpt lat="48.085928" lon="17.067834">
        <ele>136.782849</ele>
        <time>2026-05-06T11:50:16.093Z</time>
      </trkpt>
      <trkpt lat="48.085273" lon="17.067821">
        <ele>136.618597</ele>
        <time>2026-05-06T11:50:30.872Z</time>
      </trkpt>
      <trkpt lat="48.084984" lon="17.067854">
        <ele>136.569616</ele>
        <time>2026-05-06T11:50:37.199Z</time>
      </trkpt>
      <trkpt lat="48.084305" lon="17.068055">
        <ele>136.452649</ele>
        <time>2026-05-06T11:50:51.591Z</time>
      </trkpt>
      <trkpt lat="48.083843" lon="17.068214">
        <ele>136.372539</ele>
        <time>2026-05-06T11:51:01.940Z</time>
      </trkpt>
      <trkpt lat="48.083399" lon="17.068392">
        <ele>136.385508</ele>
        <time>2026-05-06T11:51:12.279Z</time>
      </trkpt>
      <trkpt lat="48.083360" lon="17.068307">
        <ele>136.387983</ele>
        <time>2026-05-06T11:51:13.824Z</time>
      </trkpt>
      <trkpt lat="48.083176" lon="17.067984">
        <ele>136.398174</ele>
        <time>2026-05-06T11:51:20.225Z</time>
      </trkpt>
      <trkpt lat="48.082961" lon="17.067617">
        <ele>136.409894</ele>
        <time>2026-05-06T11:51:27.722Z</time>
      </trkpt>
      <trkpt lat="48.082787" lon="17.067409">
        <ele>136.417896</ele>
        <time>2026-05-06T11:51:32.968Z</time>
      </trkpt>
      <trkpt lat="48.081796" lon="17.066426">
        <ele>136.132789</ele>
        <time>2026-05-06T11:51:59.106Z</time>
      </trkpt>
      <trkpt lat="48.081412" lon="17.066053">
        <ele>135.944716</ele>
        <time>2026-05-06T11:52:08.295Z</time>
      </trkpt>
      <trkpt lat="48.081137" lon="17.065786">
        <ele>135.810046</ele>
        <time>2026-05-06T11:52:14.833Z</time>
      </trkpt>
      <trkpt lat="48.080469" lon="17.065142">
        <ele>135.489359</ele>
        <time>2026-05-06T11:52:30.787Z</time>
      </trkpt>
      <trkpt lat="48.077809" lon="17.062553">
        <ele>134.657966</ele>
        <time>2026-05-06T11:53:38.222Z</time>
      </trkpt>
      <trkpt lat="48.075716" lon="17.060477">
        <ele>135.214714</ele>
        <time>2026-05-06T11:54:37.549Z</time>
      </trkpt>
      <trkpt lat="48.074258" lon="17.059054">
        <ele>135.376802</ele>
        <time>2026-05-06T11:55:16.178Z</time>
      </trkpt>
      <trkpt lat="48.074189" lon="17.059254">
        <ele>135.383586</ele>
        <time>2026-05-06T11:55:19.520Z</time>
      </trkpt>
      <trkpt lat="48.074198" lon="17.059364">
        <ele>135.386926</ele>
        <time>2026-05-06T11:55:21.176Z</time>
      </trkpt>
      <trkpt lat="48.074243" lon="17.059436">
        <ele>135.389897</ele>
        <time>2026-05-06T11:55:22.665Z</time>
      </trkpt>
      <trkpt lat="48.074435" lon="17.059503">
        <ele>135.398790</ele>
        <time>2026-05-06T11:55:27.123Z</time>
      </trkpt>
      <trkpt lat="48.074501" lon="17.059597">
        <ele>135.402900</ele>
        <time>2026-05-06T11:55:29.204Z</time>
      </trkpt>
      <trkpt lat="48.074551" lon="17.059752">
        <ele>135.408087</ele>
        <time>2026-05-06T11:55:31.837Z</time>
      </trkpt>
      <trkpt lat="48.074540" lon="17.059954">
        <ele>135.414195</ele>
        <time>2026-05-06T11:55:34.918Z</time>
      </trkpt>
      <trkpt lat="48.074469" lon="17.060207">
        <ele>135.422466</ele>
        <time>2026-05-06T11:55:39.107Z</time>
      </trkpt>
      <trkpt lat="48.074135" lon="17.061115">
        <ele>135.378685</ele>
        <time>2026-05-06T11:55:54.815Z</time>
      </trkpt>
      <trkpt lat="48.073332" lon="17.063388">
        <ele>135.169405</ele>
        <time>2026-05-06T11:56:31.816Z</time>
      </trkpt>
      <trkpt lat="48.073301" lon="17.063512">
        <ele>135.149425</ele>
        <time>2026-05-06T11:56:33.637Z</time>
      </trkpt>
      <trkpt lat="48.073185" lon="17.063831">
        <ele>135.094617</ele>
        <time>2026-05-06T11:56:38.739Z</time>
      </trkpt>
      <trkpt lat="48.072672" lon="17.063425">
        <ele>134.963552</ele>
        <time>2026-05-06T11:56:50.923Z</time>
      </trkpt>
      <trkpt lat="48.065332" lon="17.058225">
        <ele>134.125745</ele>
        <time>2026-05-06T11:59:48.619Z</time>
      </trkpt>
      <trkpt lat="48.064272" lon="17.057503">
        <ele>134.059603</ele>
        <time>2026-05-06T12:00:14.063Z</time>
      </trkpt>
      <trkpt lat="48.064160" lon="17.057481">
        <ele>134.073834</ele>
        <time>2026-05-06T12:00:16.539Z</time>
      </trkpt>
      <trkpt lat="48.060443" lon="17.054842">
        <ele>134.732581</ele>
        <time>2026-05-06T12:01:51.459Z</time>
      </trkpt>
      <trkpt lat="48.057975" lon="17.053043">
        <ele>134.443338</ele>
        <time>2026-05-06T12:02:50.687Z</time>
      </trkpt>
      <trkpt lat="48.055924" lon="17.051669">
        <ele>134.248348</ele>
        <time>2026-05-06T12:03:40.392Z</time>
      </trkpt>
      <trkpt lat="48.053015" lon="17.049584">
        <ele>133.586669</ele>
        <time>2026-05-06T12:04:49.466Z</time>
      </trkpt>
      <trkpt lat="48.052418" lon="17.049122">
        <ele>133.489246</ele>
        <time>2026-05-06T12:05:03.684Z</time>
      </trkpt>
      <trkpt lat="48.050587" lon="17.047825">
        <ele>133.360014</ele>
        <time>2026-05-06T12:05:48.319Z</time>
      </trkpt>
      <trkpt lat="48.050307" lon="17.047629">
        <ele>133.369996</ele>
        <time>2026-05-06T12:05:55.309Z</time>
      </trkpt>
      <trkpt lat="48.046642" lon="17.045064">
        <ele>133.758412</ele>
        <time>2026-05-06T12:07:27.074Z</time>
      </trkpt>
      <trkpt lat="48.045782" lon="17.044874">
        <ele>133.858994</ele>
        <time>2026-05-06T12:07:46.514Z</time>
      </trkpt>
      <trkpt lat="48.045854" lon="17.044260">
        <ele>133.911860</ele>
        <time>2026-05-06T12:07:55.818Z</time>
      </trkpt>
      <trkpt lat="48.045851" lon="17.044052">
        <ele>133.929504</ele>
        <time>2026-05-06T12:07:58.972Z</time>
      </trkpt>
      <trkpt lat="48.045850" lon="17.043345">
        <ele>133.989461</ele>
        <time>2026-05-06T12:08:09.851Z</time>
      </trkpt>
      <trkpt lat="48.045889" lon="17.042190">
        <ele>134.198146</ele>
        <time>2026-05-06T12:08:28.469Z</time>
      </trkpt>
      <trkpt lat="48.045913" lon="17.041732">
        <ele>134.297561</ele>
        <time>2026-05-06T12:08:35.981Z</time>
      </trkpt>
      <trkpt lat="48.045964" lon="17.041298">
        <ele>134.392918</ele>
        <time>2026-05-06T12:08:43.119Z</time>
      </trkpt>
      <trkpt lat="48.046006" lon="17.041148">
        <ele>134.428110</ele>
        <time>2026-05-06T12:08:45.717Z</time>
      </trkpt>
      <trkpt lat="48.046399" lon="17.040334">
        <ele>134.552196</ele>
        <time>2026-05-06T12:09:01.105Z</time>
      </trkpt>
      <trkpt lat="48.047003" lon="17.039200">
        <ele>134.242872</ele>
        <time>2026-05-06T12:09:21.360Z</time>
      </trkpt>
      <trkpt lat="48.048482" lon="17.037140">
        <ele>133.615409</ele>
        <time>2026-05-06T12:10:02.613Z</time>
      </trkpt>
      <trkpt lat="48.048947" lon="17.036404">
        <ele>133.631797</ele>
        <time>2026-05-06T12:10:18.160Z</time>
      </trkpt>
      <trkpt lat="48.048985" lon="17.036379">
        <ele>133.662293</ele>
        <time>2026-05-06T12:10:19.154Z</time>
      </trkpt>
      <trkpt lat="48.048970" lon="17.036311">
        <ele>133.697459</ele>
        <time>2026-05-06T12:10:20.322Z</time>
      </trkpt>
      <trkpt lat="48.048633" lon="17.035856">
        <ele>134.030953</ele>
        <time>2026-05-06T12:10:31.940Z</time>
      </trkpt>
      <trkpt lat="48.048057" lon="17.035045">
        <ele>134.612052</ele>
        <time>2026-05-06T12:10:53.116Z</time>
      </trkpt>
      <trkpt lat="48.047775" lon="17.034653">
        <ele>134.792684</ele>
        <time>2026-05-06T12:11:02.962Z</time>
      </trkpt>
      <trkpt lat="48.047705" lon="17.034558">
        <ele>134.790869</ele>
        <time>2026-05-06T12:11:05.361Z</time>
      </trkpt>
      <trkpt lat="48.047581" lon="17.034406">
        <ele>134.787791</ele>
        <time>2026-05-06T12:11:09.227Z</time>
      </trkpt>
      <trkpt lat="48.047548" lon="17.034379">
        <ele>134.787068</ele>
        <time>2026-05-06T12:11:10.085Z</time>
      </trkpt>
      <trkpt lat="48.047272" lon="17.034155">
        <ele>134.781039</ele>
        <time>2026-05-06T12:11:17.205Z</time>
      </trkpt>
      <trkpt lat="48.046301" lon="17.033488">
        <ele>134.757832</ele>
        <time>2026-05-06T12:11:39.276Z</time>
      </trkpt>
      <trkpt lat="48.044908" lon="17.036257">
        <ele>134.279573</ele>
        <time>2026-05-06T12:12:28.828Z</time>
      </trkpt>
      <trkpt lat="48.044466" lon="17.037130">
        <ele>134.227337</ele>
        <time>2026-05-06T12:12:44.859Z</time>
      </trkpt>
      <trkpt lat="48.044442" lon="17.037176">
        <ele>134.224554</ele>
        <time>2026-05-06T12:12:45.732Z</time>
      </trkpt>
      <trkpt lat="48.044440" lon="17.037244">
        <ele>134.221307</ele>
        <time>2026-05-06T12:12:46.757Z</time>
      </trkpt>
      <trkpt lat="48.044439" lon="17.037287">
        <ele>134.219255</ele>
        <time>2026-05-06T12:12:47.404Z</time>
      </trkpt>
      <trkpt lat="48.043926" lon="17.037192">
        <ele>134.183695</ele>
        <time>2026-05-06T12:12:59.211Z</time>
      </trkpt>
      <trkpt lat="48.043175" lon="17.037051">
        <ele>134.140372</ele>
        <time>2026-05-06T12:13:16.611Z</time>
      </trkpt>
      <trkpt lat="48.043117" lon="17.037040">
        <ele>134.137026</ele>
        <time>2026-05-06T12:13:17.956Z</time>
      </trkpt>
      <trkpt lat="48.043101" lon="17.037037">
        <ele>134.136103</ele>
        <time>2026-05-06T12:13:18.315Z</time>
      </trkpt>
      <trkpt lat="48.042434" lon="17.036890">
        <ele>134.097513</ele>
        <time>2026-05-06T12:13:33.149Z</time>
      </trkpt>
      <trkpt lat="48.041712" lon="17.036730">
        <ele>133.834493</ele>
        <time>2026-05-06T12:13:47.703Z</time>
      </trkpt>
      <trkpt lat="48.041091" lon="17.036584">
        <ele>133.536368</ele>
        <time>2026-05-06T12:14:00.183Z</time>
      </trkpt>
      <trkpt lat="48.037912" lon="17.035843">
        <ele>132.937674</ele>
        <time>2026-05-06T12:15:10.227Z</time>
      </trkpt>
      <trkpt lat="48.037761" lon="17.035800">
        <ele>132.925895</ele>
        <time>2026-05-06T12:15:13.559Z</time>
      </trkpt>
      <trkpt lat="48.037743" lon="17.035560">
        <ele>132.913521</ele>
        <time>2026-05-06T12:15:17.068Z</time>
      </trkpt>
      <trkpt lat="48.037662" lon="17.035401">
        <ele>132.903280</ele>
        <time>2026-05-06T12:15:19.964Z</time>
      </trkpt>
      <trkpt lat="48.037576" lon="17.035357">
        <ele>132.896315</ele>
        <time>2026-05-06T12:15:21.946Z</time>
      </trkpt>
      <trkpt lat="48.037401" lon="17.035407">
        <ele>132.882663</ele>
        <time>2026-05-06T12:15:25.840Z</time>
      </trkpt>
      <trkpt lat="48.037292" lon="17.035402">
        <ele>132.874307</ele>
        <time>2026-05-06T12:15:28.254Z</time>
      </trkpt>
      <trkpt lat="48.037209" lon="17.035361">
        <ele>132.867609</ele>
        <time>2026-05-06T12:15:30.180Z</time>
      </trkpt>
      <trkpt lat="48.037108" lon="17.035252">
        <ele>132.862903</ele>
        <time>2026-05-06T12:15:32.928Z</time>
      </trkpt>
      <trkpt lat="48.035353" lon="17.032823">
        <ele>133.305983</ele>
        <time>2026-05-06T12:16:28.042Z</time>
      </trkpt>
      <trkpt lat="48.035252" lon="17.032682">
        <ele>133.337305</ele>
        <time>2026-05-06T12:16:31.162Z</time>
      </trkpt>
      <trkpt lat="48.035178" lon="17.032544">
        <ele>133.364119</ele>
        <time>2026-05-06T12:16:33.833Z</time>
      </trkpt>
      <trkpt lat="48.035052" lon="17.032469">
        <ele>133.394862</ele>
        <time>2026-05-06T12:16:36.897Z</time>
      </trkpt>
      <trkpt lat="48.029679" lon="17.025187">
        <ele>135.840329</ele>
        <time>2026-05-06T12:19:27.935Z</time>
      </trkpt>
      <trkpt lat="48.028741" lon="17.023860">
        <ele>136.088637</ele>
        <time>2026-05-06T12:19:59.131Z</time>
      </trkpt>
      <trkpt lat="48.028659" lon="17.023743">
        <ele>136.081662</ele>
        <time>2026-05-06T12:20:01.668Z</time>
      </trkpt>
      <trkpt lat="48.027754" lon="17.022222">
        <ele>135.969952</ele>
        <time>2026-05-06T12:20:30.171Z</time>
      </trkpt>
      <trkpt lat="48.026919" lon="17.020590">
        <ele>135.718374</ele>
        <time>2026-05-06T12:20:59.831Z</time>
      </trkpt>
      <trkpt lat="48.026427" lon="17.019482">
        <ele>135.604517</ele>
        <time>2026-05-06T12:21:19.475Z</time>
      </trkpt>
      <trkpt lat="48.024574" lon="17.014716">
        <ele>135.210598</ele>
        <time>2026-05-06T12:22:39.819Z</time>
      </trkpt>
      <trkpt lat="48.024559" lon="17.014623">
        <ele>135.204488</ele>
        <time>2026-05-06T12:22:41.186Z</time>
      </trkpt>
      <trkpt lat="48.024581" lon="17.014507">
        <ele>135.196788</ele>
        <time>2026-05-06T12:22:42.915Z</time>
      </trkpt>
      <trkpt lat="48.024860" lon="17.013935">
        <ele>135.151572</ele>
        <time>2026-05-06T12:22:53.247Z</time>
      </trkpt>
      <trkpt lat="48.024956" lon="17.013637">
        <ele>135.130446</ele>
        <time>2026-05-06T12:22:58.147Z</time>
      </trkpt>
      <trkpt lat="48.024943" lon="17.013491">
        <ele>135.121039</ele>
        <time>2026-05-06T12:23:00.304Z</time>
      </trkpt>
      <trkpt lat="48.024807" lon="17.013364">
        <ele>135.104110</ele>
        <time>2026-05-06T12:23:03.829Z</time>
      </trkpt>
      <trkpt lat="48.024179" lon="17.013012">
        <ele>135.027161</ele>
        <time>2026-05-06T12:23:18.732Z</time>
      </trkpt>
      <trkpt lat="48.021960" lon="17.009458">
        <ele>134.539407</ele>
        <time>2026-05-06T12:24:29.004Z</time>
      </trkpt>
      <trkpt lat="48.020095" lon="17.006781">
        <ele>134.343847</ele>
        <time>2026-05-06T12:25:25.766Z</time>
      </trkpt>
      <trkpt lat="48.017542" lon="17.002986">
        <ele>134.563344</ele>
        <time>2026-05-06T12:26:46.207Z</time>
      </trkpt>
      <trkpt lat="48.014999" lon="16.999238">
        <ele>135.938602</ele>
        <time>2026-05-06T12:28:11.496Z</time>
      </trkpt>
      <trkpt lat="48.014666" lon="16.998691">
        <ele>136.162702</ele>
        <time>2026-05-06T12:28:23.316Z</time>
      </trkpt>
      <trkpt lat="48.014196" lon="16.997763">
        <ele>136.568314</ele>
        <time>2026-05-06T12:28:42.429Z</time>
      </trkpt>
      <trkpt lat="48.013654" lon="16.996204">
        <ele>137.192225</ele>
        <time>2026-05-06T12:29:11.421Z</time>
      </trkpt>
      <trkpt lat="48.013554" lon="16.995834">
        <ele>137.284585</ele>
        <time>2026-05-06T12:29:17.562Z</time>
      </trkpt>
      <trkpt lat="48.013473" lon="16.995368">
        <ele>137.396020</ele>
        <time>2026-05-06T12:29:24.878Z</time>
      </trkpt>
      <trkpt lat="48.013403" lon="16.995004">
        <ele>137.483678</ele>
        <time>2026-05-06T12:29:30.711Z</time>
      </trkpt>
      <trkpt lat="48.013311" lon="16.994817">
        <ele>137.537403</ele>
        <time>2026-05-06T12:29:34.343Z</time>
      </trkpt>
      <trkpt lat="48.013218" lon="16.994665">
        <ele>137.585078</ele>
        <time>2026-05-06T12:29:37.567Z</time>
      </trkpt>
      <trkpt lat="48.012950" lon="16.994440">
        <ele>137.691424</ele>
        <time>2026-05-06T12:29:44.928Z</time>
      </trkpt>
      <trkpt lat="48.012862" lon="16.994328">
        <ele>137.731411</ele>
        <time>2026-05-06T12:29:47.719Z</time>
      </trkpt>
      <trkpt lat="48.012708" lon="16.993705">
        <ele>137.891782</ele>
        <time>2026-05-06T12:29:58.476Z</time>
      </trkpt>
      <trkpt lat="48.012662" lon="16.993538">
        <ele>137.937103</ele>
        <time>2026-05-06T12:30:01.407Z</time>
      </trkpt>
      <trkpt lat="48.012632" lon="16.993430">
        <ele>137.966449</ele>
        <time>2026-05-06T12:30:03.272Z</time>
      </trkpt>
      <trkpt lat="48.012538" lon="16.992904">
        <ele>138.103074</ele>
        <time>2026-05-06T12:30:12.031Z</time>
      </trkpt>
      <trkpt lat="48.012515" lon="16.992473">
        <ele>138.211575</ele>
        <time>2026-05-06T12:30:18.810Z</time>
      </trkpt>
      <trkpt lat="48.012530" lon="16.992383">
        <ele>138.234851</ele>
        <time>2026-05-06T12:30:20.233Z</time>
      </trkpt>
      <trkpt lat="48.012565" lon="16.992340">
        <ele>138.251845</ele>
        <time>2026-05-06T12:30:21.262Z</time>
      </trkpt>
      <trkpt lat="48.012733" lon="16.992258">
        <ele>138.318140</ele>
        <time>2026-05-06T12:30:25.327Z</time>
      </trkpt>
      <trkpt lat="48.013268" lon="16.991995">
        <ele>138.564969</ele>
        <time>2026-05-06T12:30:38.519Z</time>
      </trkpt>
      <trkpt lat="48.013533" lon="16.991675">
        <ele>138.786457</ele>
        <time>2026-05-06T12:30:46.570Z</time>
      </trkpt>
      <trkpt lat="48.013724" lon="16.991334">
        <ele>138.979895</ele>
        <time>2026-05-06T12:30:53.857Z</time>
      </trkpt>
      <trkpt lat="48.013826" lon="16.991099">
        <ele>139.101734</ele>
        <time>2026-05-06T12:30:58.675Z</time>
      </trkpt>
      <trkpt lat="48.013914" lon="16.990815">
        <ele>139.237862</ele>
        <time>2026-05-06T12:31:04.179Z</time>
      </trkpt>
      <trkpt lat="48.014014" lon="16.990361">
        <ele>139.445751</ele>
        <time>2026-05-06T12:31:12.736Z</time>
      </trkpt>
      <trkpt lat="48.014161" lon="16.989632">
        <ele>139.697785</ele>
        <time>2026-05-06T12:31:25.851Z</time>
      </trkpt>
      <trkpt lat="48.014241" lon="16.989301">
        <ele>139.755175</ele>
        <time>2026-05-06T12:31:31.521Z</time>
      </trkpt>
      <trkpt lat="48.014390" lon="16.988872">
        <ele>139.833996</ele>
        <time>2026-05-06T12:31:39.070Z</time>
      </trkpt>
      <trkpt lat="48.014778" lon="16.988114">
        <ele>139.989634</ele>
        <time>2026-05-06T12:31:53.211Z</time>
      </trkpt>
      <trkpt lat="48.015070" lon="16.987545">
        <ele>140.136478</ele>
        <time>2026-05-06T12:32:03.583Z</time>
      </trkpt>
      <trkpt lat="48.015498" lon="16.986546">
        <ele>140.654876</ele>
        <time>2026-05-06T12:32:21.760Z</time>
      </trkpt>
      <trkpt lat="48.015976" lon="16.985323">
        <ele>141.285569</ele>
        <time>2026-05-06T12:32:46.543Z</time>
      </trkpt>
      <trkpt lat="48.016284" lon="16.984334">
        <ele>142.316232</ele>
        <time>2026-05-06T12:33:07.801Z</time>
      </trkpt>
      <trkpt lat="48.016367" lon="16.984051">
        <ele>142.608167</ele>
        <time>2026-05-06T12:33:13.912Z</time>
      </trkpt>
      <trkpt lat="48.016390" lon="16.983979">
        <ele>142.683547</ele>
        <time>2026-05-06T12:33:15.526Z</time>
      </trkpt>
      <trkpt lat="48.016941" lon="16.981782">
        <ele>144.134786</ele>
        <time>2026-05-06T12:33:58.390Z</time>
      </trkpt>
      <trkpt lat="48.017184" lon="16.980844">
        <ele>144.421503</ele>
        <time>2026-05-06T12:34:13.282Z</time>
      </trkpt>
      <trkpt lat="48.017265" lon="16.980275">
        <ele>144.538684</ele>
        <time>2026-05-06T12:34:21.353Z</time>
      </trkpt>
      <trkpt lat="48.017367" lon="16.979834">
        <ele>144.287196</ele>
        <time>2026-05-06T12:34:27.660Z</time>
      </trkpt>
      <trkpt lat="48.017948" lon="16.977982">
        <ele>143.184730</ele>
        <time>2026-05-06T12:34:54.539Z</time>
      </trkpt>
      <trkpt lat="48.017996" lon="16.977729">
        <ele>143.082974</ele>
        <time>2026-05-06T12:34:57.785Z</time>
      </trkpt>
      <trkpt lat="48.018024" lon="16.977370">
        <ele>142.987659</ele>
        <time>2026-05-06T12:35:02.298Z</time>
      </trkpt>
      <trkpt lat="48.018008" lon="16.976777">
        <ele>142.831148</ele>
        <time>2026-05-06T12:35:09.946Z</time>
      </trkpt>
      <trkpt lat="48.018055" lon="16.976611">
        <ele>142.783611</ele>
        <time>2026-05-06T12:35:12.414Z</time>
      </trkpt>
      <trkpt lat="48.018004" lon="16.976369">
        <ele>142.716699</ele>
        <time>2026-05-06T12:35:15.985Z</time>
      </trkpt>
      <trkpt lat="48.018010" lon="16.976353">
        <ele>142.711862</ele>
        <time>2026-05-06T12:35:16.255Z</time>
      </trkpt>
      <trkpt lat="48.018023" lon="16.976323">
        <ele>142.702436</ele>
        <time>2026-05-06T12:35:16.729Z</time>
      </trkpt>
      <trkpt lat="48.018060" lon="16.976241">
        <ele>142.676351</ele>
        <time>2026-05-06T12:35:18.139Z</time>
      </trkpt>
      <trkpt lat="48.018069" lon="16.976224">
        <ele>142.670633</ele>
        <time>2026-05-06T12:35:18.440Z</time>
      </trkpt>
      <trkpt lat="48.018077" lon="16.976206">
        <ele>142.664934</ele>
        <time>2026-05-06T12:35:18.758Z</time>
      </trkpt>
      <trkpt lat="48.018210" lon="16.975687">
        <ele>142.518365</ele>
        <time>2026-05-06T12:35:27.042Z</time>
      </trkpt>
      <trkpt lat="48.018219" lon="16.975444">
        <ele>142.454185</ele>
        <time>2026-05-06T12:35:30.854Z</time>
      </trkpt>
      <trkpt lat="48.018313" lon="16.975089">
        <ele>142.453492</ele>
        <time>2026-05-06T12:35:37.098Z</time>
      </trkpt>
      <trkpt lat="48.018583" lon="16.974384">
        <ele>142.604469</ele>
        <time>2026-05-06T12:35:51.249Z</time>
      </trkpt>
      <trkpt lat="48.019234" lon="16.972777">
        <ele>142.843452</ele>
        <time>2026-05-06T12:36:19.939Z</time>
      </trkpt>
      <trkpt lat="48.019471" lon="16.972358">
        <ele>142.676199</ele>
        <time>2026-05-06T12:36:27.473Z</time>
      </trkpt>
      <trkpt lat="48.019561" lon="16.972091">
        <ele>142.585069</ele>
        <time>2026-05-06T12:36:31.527Z</time>
      </trkpt>
      <trkpt lat="48.019596" lon="16.971907">
        <ele>142.526763</ele>
        <time>2026-05-06T12:36:34.094Z</time>
      </trkpt>
      <trkpt lat="48.019679" lon="16.971677">
        <ele>142.447108</ele>
        <time>2026-05-06T12:36:37.579Z</time>
      </trkpt>
      <trkpt lat="48.020568" lon="16.969496">
        <ele>142.440557</ele>
        <time>2026-05-06T12:37:12.484Z</time>
      </trkpt>
      <trkpt lat="48.021647" lon="16.966695">
        <ele>144.331243</ele>
        <time>2026-05-06T12:38:12.182Z</time>
      </trkpt>
      <trkpt lat="48.021856" lon="16.966049">
        <ele>144.912235</ele>
        <time>2026-05-06T12:38:25.079Z</time>
      </trkpt>
      <trkpt lat="48.022224" lon="16.964567">
        <ele>145.515798</ele>
        <time>2026-05-06T12:38:50.688Z</time>
      </trkpt>
      <trkpt lat="48.022405" lon="16.964232">
        <ele>145.675635</ele>
        <time>2026-05-06T12:38:57.033Z</time>
      </trkpt>
      <trkpt lat="48.022158" lon="16.964277">
        <ele>145.813713</ele>
        <time>2026-05-06T12:39:02.787Z</time>
      </trkpt>
      <trkpt lat="48.021969" lon="16.964196">
        <ele>145.922816</ele>
        <time>2026-05-06T12:39:07.617Z</time>
      </trkpt>
      <trkpt lat="48.022060" lon="16.964020">
        <ele>146.105566</ele>
        <time>2026-05-06T12:39:11.377Z</time>
      </trkpt>
      <trkpt lat="48.022118" lon="16.963772">
        <ele>146.355784</ele>
        <time>2026-05-06T12:39:15.957Z</time>
      </trkpt>
      <trkpt lat="48.022154" lon="16.963472">
        <ele>146.646066</ele>
        <time>2026-05-06T12:39:21.464Z</time>
      </trkpt>
      <trkpt lat="48.022181" lon="16.962970">
        <ele>147.125713</ele>
        <time>2026-05-06T12:39:30.935Z</time>
      </trkpt>
      <trkpt lat="48.022157" lon="16.962083">
        <ele>147.971182</ele>
        <time>2026-05-06T12:39:48.222Z</time>
      </trkpt>
      <trkpt lat="48.022102" lon="16.961238">
        <ele>148.890090</ele>
        <time>2026-05-06T12:40:05.096Z</time>
      </trkpt>
      <trkpt lat="48.021641" lon="16.955877">
        <ele>156.484779</ele>
        <time>2026-05-06T12:41:54.791Z</time>
      </trkpt>
      <trkpt lat="48.021496" lon="16.954578">
        <ele>159.099675</ele>
        <time>2026-05-06T12:42:24.178Z</time>
      </trkpt>
      <trkpt lat="48.021286" lon="16.953108">
        <ele>162.323681</ele>
        <time>2026-05-06T12:43:01.104Z</time>
      </trkpt>
      <trkpt lat="48.021061" lon="16.951937">
        <ele>165.392772</ele>
        <time>2026-05-06T12:43:32.476Z</time>
      </trkpt>
      <trkpt lat="48.020768" lon="16.950693">
        <ele>168.348016</ele>
        <time>2026-05-06T12:44:05.345Z</time>
      </trkpt>
      <trkpt lat="48.020574" lon="16.949670">
        <ele>169.711910</ele>
        <time>2026-05-06T12:44:28.046Z</time>
      </trkpt>
      <trkpt lat="48.020477" lon="16.949299">
        <ele>170.222847</ele>
        <time>2026-05-06T12:44:35.760Z</time>
      </trkpt>
      <trkpt lat="48.020479" lon="16.949067">
        <ele>170.520453</ele>
        <time>2026-05-06T12:44:40.028Z</time>
      </trkpt>
      <trkpt lat="48.020343" lon="16.948962">
        <ele>170.813981</ele>
        <time>2026-05-06T12:44:44.121Z</time>
      </trkpt>
      <trkpt lat="48.017943" lon="16.945988">
        <ele>172.080315</ele>
        <time>2026-05-06T12:45:57.796Z</time>
      </trkpt>
      <trkpt lat="48.016223" lon="16.943927">
        <ele>171.412559</ele>
        <time>2026-05-06T12:46:42.504Z</time>
      </trkpt>
      <trkpt lat="48.014095" lon="16.941299">
        <ele>170.591655</ele>
        <time>2026-05-06T12:47:43.768Z</time>
      </trkpt>
      <trkpt lat="48.013957" lon="16.941154">
        <ele>170.423768</ele>
        <time>2026-05-06T12:47:46.942Z</time>
      </trkpt>
      <trkpt lat="48.013624" lon="16.940903">
        <ele>170.052581</ele>
        <time>2026-05-06T12:47:53.850Z</time>
      </trkpt>
      <trkpt lat="48.013268" lon="16.940518">
        <ele>169.615249</ele>
        <time>2026-05-06T12:48:01.830Z</time>
      </trkpt>
      <trkpt lat="48.013186" lon="16.940217">
        <ele>169.398856</ele>
        <time>2026-05-06T12:48:05.737Z</time>
      </trkpt>
      <trkpt lat="48.013191" lon="16.939899">
        <ele>169.280903</ele>
        <time>2026-05-06T12:48:09.581Z</time>
      </trkpt>
      <trkpt lat="48.013425" lon="16.938994">
        <ele>168.963058</ele>
        <time>2026-05-06T12:48:22.075Z</time>
      </trkpt>
      <trkpt lat="48.014005" lon="16.936103">
        <ele>169.138374</ele>
        <time>2026-05-06T12:49:08.527Z</time>
      </trkpt>
      <trkpt lat="48.014405" lon="16.934217">
        <ele>170.101573</ele>
        <time>2026-05-06T12:49:44.222Z</time>
      </trkpt>
      <trkpt lat="48.014598" lon="16.932783">
        <ele>170.956876</ele>
        <time>2026-05-06T12:50:09.098Z</time>
      </trkpt>
      <trkpt lat="48.014960" lon="16.930904">
        <ele>171.808392</ele>
        <time>2026-05-06T12:50:40.902Z</time>
      </trkpt>
      <trkpt lat="48.015118" lon="16.930160">
        <ele>172.122108</ele>
        <time>2026-05-06T12:50:53.936Z</time>
      </trkpt>
      <trkpt lat="48.015166" lon="16.929941">
        <ele>172.214727</ele>
        <time>2026-05-06T12:50:57.845Z</time>
      </trkpt>
      <trkpt lat="48.015410" lon="16.928845">
        <ele>172.567814</ele>
        <time>2026-05-06T12:51:17.472Z</time>
      </trkpt>
      <trkpt lat="48.015666" lon="16.927865">
        <ele>172.881722</ele>
        <time>2026-05-06T12:51:33.131Z</time>
      </trkpt>
      <trkpt lat="48.015702" lon="16.927791">
        <ele>172.909022</ele>
        <time>2026-05-06T12:51:34.570Z</time>
      </trkpt>
      <trkpt lat="48.015752" lon="16.927712">
        <ele>172.941472</ele>
        <time>2026-05-06T12:51:36.262Z</time>
      </trkpt>
      <trkpt lat="48.015940" lon="16.927405">
        <ele>173.073844</ele>
        <time>2026-05-06T12:51:43.036Z</time>
      </trkpt>
      <trkpt lat="48.016121" lon="16.926959">
        <ele>173.309585</ele>
        <time>2026-05-06T12:51:51.757Z</time>
      </trkpt>
      <trkpt lat="48.016364" lon="16.926435">
        <ele>173.597722</ele>
        <time>2026-05-06T12:52:02.346Z</time>
      </trkpt>
      <trkpt lat="48.016588" lon="16.925909">
        <ele>173.879504</ele>
        <time>2026-05-06T12:52:12.746Z</time>
      </trkpt>
      <trkpt lat="48.016887" lon="16.925069">
        <ele>174.289331</ele>
        <time>2026-05-06T12:52:29.338Z</time>
      </trkpt>
      <trkpt lat="48.016908" lon="16.924982">
        <ele>174.312244</ele>
        <time>2026-05-06T12:52:30.874Z</time>
      </trkpt>
      <trkpt lat="48.019783" lon="16.910626">
        <ele>177.766526</ele>
        <time>2026-05-06T12:56:28.040Z</time>
      </trkpt>
      <trkpt lat="48.021260" lon="16.903525">
        <ele>177.239572</ele>
        <time>2026-05-06T12:58:14.954Z</time>
      </trkpt>
      <trkpt lat="48.021836" lon="16.900610">
        <ele>177.714590</ele>
        <time>2026-05-06T12:59:02.922Z</time>
      </trkpt>
      <trkpt lat="48.022360" lon="16.897946">
        <ele>178.650952</ele>
        <time>2026-05-06T12:59:46.887Z</time>
      </trkpt>
      <trkpt lat="48.022430" lon="16.897821">
        <ele>178.718623</ele>
        <time>2026-05-06T12:59:49.664Z</time>
      </trkpt>
      <trkpt lat="48.023613" lon="16.896247">
        <ele>179.721316</ele>
        <time>2026-05-06T13:00:31.145Z</time>
      </trkpt>
      <trkpt lat="48.023779" lon="16.895943">
        <ele>179.889870</ele>
        <time>2026-05-06T13:00:37.659Z</time>
      </trkpt>
      <trkpt lat="48.025682" lon="16.893465">
        <ele>180.652660</ele>
        <time>2026-05-06T13:01:35.222Z</time>
      </trkpt>
      <trkpt lat="48.029931" lon="16.887737">
        <ele>182.455909</ele>
        <time>2026-05-06T13:03:50.472Z</time>
      </trkpt>
      <trkpt lat="48.027658" lon="16.884905">
        <ele>182.498875</ele>
        <time>2026-05-06T13:04:55.913Z</time>
      </trkpt>
      <trkpt lat="48.027550" lon="16.884802">
        <ele>182.494455</ele>
        <time>2026-05-06T13:04:58.712Z</time>
      </trkpt>
      <trkpt lat="48.003693" lon="16.865869">
        <ele>181.306208</ele>
        <time>2026-05-06T13:14:54.470Z</time>
      </trkpt>
      <trkpt lat="48.003215" lon="16.865518">
        <ele>181.449427</ele>
        <time>2026-05-06T13:15:07.202Z</time>
      </trkpt>
      <trkpt lat="48.003195" lon="16.865504">
        <ele>181.455861</ele>
        <time>2026-05-06T13:15:07.748Z</time>
      </trkpt>
      <trkpt lat="48.002519" lon="16.864962">
        <ele>181.679367</ele>
        <time>2026-05-06T13:15:26.232Z</time>
      </trkpt>
      <trkpt lat="48.002438" lon="16.864897">
        <ele>181.706154</ele>
        <time>2026-05-06T13:15:28.394Z</time>
      </trkpt>
      <trkpt lat="48.002490" lon="16.864637">
        <ele>181.759055</ele>
        <time>2026-05-06T13:15:32.634Z</time>
      </trkpt>
      <trkpt lat="48.002545" lon="16.864402">
        <ele>181.807588</ele>
        <time>2026-05-06T13:15:36.421Z</time>
      </trkpt>
      <trkpt lat="48.002588" lon="16.864209">
        <ele>181.818934</ele>
        <time>2026-05-06T13:15:39.480Z</time>
      </trkpt>
      <trkpt lat="48.002680" lon="16.863836">
        <ele>181.763189</ele>
        <time>2026-05-06T13:15:45.437Z</time>
      </trkpt>
      <trkpt lat="48.002740" lon="16.863543">
        <ele>181.720222</ele>
        <time>2026-05-06T13:15:49.912Z</time>
      </trkpt>
      <trkpt lat="48.002817" lon="16.863248">
        <ele>181.675819</ele>
        <time>2026-05-06T13:15:54.393Z</time>
      </trkpt>
      <trkpt lat="48.002937" lon="16.862820">
        <ele>181.610747</ele>
        <time>2026-05-06T13:16:00.955Z</time>
      </trkpt>
      <trkpt lat="48.003030" lon="16.862471">
        <ele>181.558070</ele>
        <time>2026-05-06T13:16:06.248Z</time>
      </trkpt>
      <trkpt lat="48.003152" lon="16.862069">
        <ele>181.496172</ele>
        <time>2026-05-06T13:16:12.416Z</time>
      </trkpt>
      <trkpt lat="48.003848" lon="16.859506">
        <ele>180.746478</ele>
        <time>2026-05-06T13:16:51.428Z</time>
      </trkpt>
      <trkpt lat="48.004145" lon="16.858398">
        <ele>180.207985</ele>
        <time>2026-05-06T13:17:06.964Z</time>
      </trkpt>
      <trkpt lat="48.004364" lon="16.857443">
        <ele>179.714240</ele>
        <time>2026-05-06T13:17:20.228Z</time>
      </trkpt>
      <trkpt lat="48.004502" lon="16.857395">
        <ele>179.610669</ele>
        <time>2026-05-06T13:17:23.040Z</time>
      </trkpt>
      <trkpt lat="48.004940" lon="16.857344">
        <ele>179.335756</ele>
        <time>2026-05-06T13:17:31.817Z</time>
      </trkpt>
      <trkpt lat="48.005231" lon="16.857271">
        <ele>179.248169</ele>
        <time>2026-05-06T13:17:37.999Z</time>
      </trkpt>
      <trkpt lat="48.006184" lon="16.856880">
        <ele>178.954820</ele>
        <time>2026-05-06T13:18:00.055Z</time>
      </trkpt>
      <trkpt lat="48.006779" lon="16.856727">
        <ele>178.598326</ele>
        <time>2026-05-06T13:18:12.546Z</time>
      </trkpt>
      <trkpt lat="48.007079" lon="16.856353">
        <ele>178.127023</ele>
        <time>2026-05-06T13:18:20.270Z</time>
      </trkpt>
      <trkpt lat="48.009101" lon="16.854130">
        <ele>174.355766</ele>
        <time>2026-05-06T13:19:06.126Z</time>
      </trkpt>
      <trkpt lat="48.010298" lon="16.852564">
        <ele>171.313203</ele>
        <time>2026-05-06T13:19:33.391Z</time>
      </trkpt>
      <trkpt lat="48.011117" lon="16.851421">
        <ele>169.410695</ele>
        <time>2026-05-06T13:19:54.087Z</time>
      </trkpt>
      <trkpt lat="48.013929" lon="16.846231">
        <ele>163.517882</ele>
        <time>2026-05-06T13:21:18.480Z</time>
      </trkpt>
      <trkpt lat="48.014089" lon="16.845819">
        <ele>163.019943</ele>
        <time>2026-05-06T13:21:24.093Z</time>
      </trkpt>
      <trkpt lat="48.014377" lon="16.845145">
        <ele>161.736939</ele>
        <time>2026-05-06T13:21:33.188Z</time>
      </trkpt>
      <trkpt lat="48.014568" lon="16.844624">
        <ele>160.587938</ele>
        <time>2026-05-06T13:21:39.800Z</time>
      </trkpt>
      <trkpt lat="48.014714" lon="16.844106">
        <ele>159.500840</ele>
        <time>2026-05-06T13:21:45.866Z</time>
      </trkpt>
      <trkpt lat="48.014824" lon="16.843712">
        <ele>158.675150</ele>
        <time>2026-05-06T13:21:50.485Z</time>
      </trkpt>
      <trkpt lat="48.014964" lon="16.842797">
        <ele>157.076671</ele>
        <time>2026-05-06T13:22:00.826Z</time>
      </trkpt>
      <trkpt lat="48.015057" lon="16.842438">
        <ele>156.580539</ele>
        <time>2026-05-06T13:22:05.202Z</time>
      </trkpt>
      <trkpt lat="48.015227" lon="16.842118">
        <ele>156.053921</ele>
        <time>2026-05-06T13:22:09.949Z</time>
      </trkpt>
      <trkpt lat="48.015789" lon="16.841459">
        <ele>154.677878</ele>
        <time>2026-05-06T13:22:22.828Z</time>
      </trkpt>
      <trkpt lat="48.016823" lon="16.839960">
        <ele>153.150066</ele>
        <time>2026-05-06T13:22:50.651Z</time>
      </trkpt>
      <trkpt lat="48.016820" lon="16.839762">
        <ele>153.043463</ele>
        <time>2026-05-06T13:22:53.281Z</time>
      </trkpt>
      <trkpt lat="48.016743" lon="16.839344">
        <ele>152.810092</ele>
        <time>2026-05-06T13:22:59.088Z</time>
      </trkpt>
      <trkpt lat="48.016517" lon="16.838196">
        <ele>152.444285</ele>
        <time>2026-05-06T13:23:16.107Z</time>
      </trkpt>
      <trkpt lat="48.016445" lon="16.837651">
        <ele>152.338246</ele>
        <time>2026-05-06T13:23:24.606Z</time>
      </trkpt>
      <trkpt lat="48.016417" lon="16.837141">
        <ele>152.240571</ele>
        <time>2026-05-06T13:23:32.136Z</time>
      </trkpt>
      <trkpt lat="48.016396" lon="16.836459">
        <ele>152.110254</ele>
        <time>2026-05-06T13:23:41.726Z</time>
      </trkpt>
      <trkpt lat="48.016311" lon="16.834652">
        <ele>151.274332</ele>
        <time>2026-05-06T13:24:05.919Z</time>
      </trkpt>
      <trkpt lat="48.016209" lon="16.833319">
        <ele>150.599897</ele>
        <time>2026-05-06T13:24:23.390Z</time>
      </trkpt>
      <trkpt lat="48.016224" lon="16.832704">
        <ele>150.254300</ele>
        <time>2026-05-06T13:24:31.478Z</time>
      </trkpt>
      <trkpt lat="48.016335" lon="16.831862">
        <ele>149.772362</ele>
        <time>2026-05-06T13:24:42.626Z</time>
      </trkpt>
      <trkpt lat="48.016353" lon="16.831521">
        <ele>149.580271</ele>
        <time>2026-05-06T13:24:47.025Z</time>
      </trkpt>
      <trkpt lat="48.016313" lon="16.831068">
        <ele>149.323672</ele>
        <time>2026-05-06T13:24:53.061Z</time>
      </trkpt>
      <trkpt lat="48.016157" lon="16.829940">
        <ele>149.201815</ele>
        <time>2026-05-06T13:25:09.312Z</time>
      </trkpt>
      <trkpt lat="48.016152" lon="16.829907">
        <ele>149.199538</ele>
        <time>2026-05-06T13:25:09.847Z</time>
      </trkpt>
      <trkpt lat="48.016132" lon="16.829797">
        <ele>149.191868</ele>
        <time>2026-05-06T13:25:11.554Z</time>
      </trkpt>
      <trkpt lat="48.016129" lon="16.829763">
        <ele>149.189561</ele>
        <time>2026-05-06T13:25:12.062Z</time>
      </trkpt>
      <trkpt lat="48.016049" lon="16.829084">
        <ele>149.143171</ele>
        <time>2026-05-06T13:25:22.621Z</time>
      </trkpt>
      <trkpt lat="48.015794" lon="16.825883">
        <ele>149.529301</ele>
        <time>2026-05-06T13:26:12.271Z</time>
      </trkpt>
      <trkpt lat="48.015661" lon="16.824752">
        <ele>149.981682</ele>
        <time>2026-05-06T13:26:31.051Z</time>
      </trkpt>
      <trkpt lat="48.015655" lon="16.824265">
        <ele>150.198663</ele>
        <time>2026-05-06T13:26:39.346Z</time>
      </trkpt>
      <trkpt lat="48.015752" lon="16.823765">
        <ele>150.430577</ele>
        <time>2026-05-06T13:26:48.365Z</time>
      </trkpt>
      <trkpt lat="48.016239" lon="16.822582">
        <ele>151.219207</ele>
        <time>2026-05-06T13:27:11.706Z</time>
      </trkpt>
      <trkpt lat="48.016452" lon="16.821920">
        <ele>151.742670</ele>
        <time>2026-05-06T13:27:23.915Z</time>
      </trkpt>
      <trkpt lat="48.016636" lon="16.821249">
        <ele>152.259427</ele>
        <time>2026-05-06T13:27:36.648Z</time>
      </trkpt>
      <trkpt lat="48.016803" lon="16.820432">
        <ele>153.078326</ele>
        <time>2026-05-06T13:27:52.960Z</time>
      </trkpt>
      <trkpt lat="48.016953" lon="16.819201">
        <ele>154.977272</ele>
        <time>2026-05-06T13:28:19.541Z</time>
      </trkpt>
      <trkpt lat="48.017066" lon="16.818143">
        <ele>156.603258</ele>
        <time>2026-05-06T13:28:43.005Z</time>
      </trkpt>
      <trkpt lat="48.017125" lon="16.817291">
        <ele>157.504876</ele>
        <time>2026-05-06T13:29:01.130Z</time>
      </trkpt>
      <trkpt lat="48.017120" lon="16.816239">
        <ele>158.543745</ele>
        <time>2026-05-06T13:29:21.595Z</time>
      </trkpt>
      <trkpt lat="48.017081" lon="16.815704">
        <ele>159.075182</ele>
        <time>2026-05-06T13:29:30.924Z</time>
      </trkpt>
      <trkpt lat="48.016981" lon="16.814934">
        <ele>159.322025</ele>
        <time>2026-05-06T13:29:43.066Z</time>
      </trkpt>
      <trkpt lat="48.016562" lon="16.812431">
        <ele>159.055928</ele>
        <time>2026-05-06T13:30:17.410Z</time>
      </trkpt>
      <trkpt lat="48.016371" lon="16.810581">
        <ele>160.365518</ele>
        <time>2026-05-06T13:30:51.767Z</time>
      </trkpt>
      <trkpt lat="48.016365" lon="16.809858">
        <ele>160.844456</ele>
        <time>2026-05-06T13:31:06.510Z</time>
      </trkpt>
      <trkpt lat="48.016394" lon="16.809118">
        <ele>161.277917</ele>
        <time>2026-05-06T13:31:21.187Z</time>
      </trkpt>
      <trkpt lat="48.016618" lon="16.809024">
        <ele>161.481302</ele>
        <time>2026-05-06T13:31:27.712Z</time>
      </trkpt>
      <trkpt lat="48.016788" lon="16.806723">
        <ele>161.874178</ele>
        <time>2026-05-06T13:32:02.207Z</time>
      </trkpt>
      <trkpt lat="48.016980" lon="16.804738">
        <ele>161.020243</ele>
        <time>2026-05-06T13:32:28.080Z</time>
      </trkpt>
      <trkpt lat="48.017003" lon="16.804668">
        <ele>160.987740</ele>
        <time>2026-05-06T13:32:29.102Z</time>
      </trkpt>
      <trkpt lat="48.017078" lon="16.804618">
        <ele>160.936576</ele>
        <time>2026-05-06T13:32:30.696Z</time>
      </trkpt>
      <trkpt lat="48.017216" lon="16.804672">
        <ele>160.847698</ele>
        <time>2026-05-06T13:32:33.510Z</time>
      </trkpt>
      <trkpt lat="48.017334" lon="16.804778">
        <ele>160.761927</ele>
        <time>2026-05-06T13:32:36.254Z</time>
      </trkpt>
      <trkpt lat="48.017397" lon="16.804844">
        <ele>160.713997</ele>
        <time>2026-05-06T13:32:37.754Z</time>
      </trkpt>
      <trkpt lat="48.017432" lon="16.804691">
        <ele>160.646606</ele>
        <time>2026-05-06T13:32:39.924Z</time>
      </trkpt>
      <trkpt lat="48.017416" lon="16.804635">
        <ele>160.621228</ele>
        <time>2026-05-06T13:32:40.751Z</time>
      </trkpt>
      <trkpt lat="48.017149" lon="16.804354">
        <ele>160.417786</ele>
        <time>2026-05-06T13:32:47.404Z</time>
      </trkpt>
      <trkpt lat="48.017102" lon="16.804270">
        <ele>160.372146</ele>
        <time>2026-05-06T13:32:48.906Z</time>
      </trkpt>
      <trkpt lat="48.017065" lon="16.804140">
        <ele>160.313266</ele>
        <time>2026-05-06T13:32:50.865Z</time>
      </trkpt>
      <trkpt lat="48.017057" lon="16.803974">
        <ele>160.243904</ele>
        <time>2026-05-06T13:32:53.164Z</time>
      </trkpt>
      <trkpt lat="48.017308" lon="16.801530">
        <ele>159.198922</ele>
        <time>2026-05-06T13:33:27.972Z</time>
      </trkpt>
      <trkpt lat="48.017436" lon="16.799875">
        <ele>158.257620</ele>
        <time>2026-05-06T13:33:48.843Z</time>
      </trkpt>
      <trkpt lat="48.017452" lon="16.799799">
        <ele>158.202828</ele>
        <time>2026-05-06T13:33:49.811Z</time>
      </trkpt>
      <trkpt lat="48.017600" lon="16.799567">
        <ele>157.982360</ele>
        <time>2026-05-06T13:33:53.798Z</time>
      </trkpt>
      <trkpt lat="48.017592" lon="16.799408">
        <ele>157.872709</ele>
        <time>2026-05-06T13:33:55.840Z</time>
      </trkpt>
      <trkpt lat="48.017859" lon="16.799105">
        <ele>157.528082</ele>
        <time>2026-05-06T13:34:02.336Z</time>
      </trkpt>
      <trkpt lat="48.018087" lon="16.798833">
        <ele>157.228194</ele>
        <time>2026-05-06T13:34:08.110Z</time>
      </trkpt>
      <trkpt lat="48.017980" lon="16.798077">
        <ele>156.960366</ele>
        <time>2026-05-06T13:34:18.542Z</time>
      </trkpt>
      <trkpt lat="48.017989" lon="16.797795">
        <ele>156.924343</ele>
        <time>2026-05-06T13:34:22.356Z</time>
      </trkpt>
      <trkpt lat="48.018078" lon="16.796991">
        <ele>156.820364</ele>
        <time>2026-05-06T13:34:34.271Z</time>
      </trkpt>
      <trkpt lat="48.018216" lon="16.796292">
        <ele>156.727373</ele>
        <time>2026-05-06T13:34:45.185Z</time>
      </trkpt>
      <trkpt lat="48.018288" lon="16.795790">
        <ele>156.697652</ele>
        <time>2026-05-06T13:34:53.002Z</time>
      </trkpt>
      <trkpt lat="48.018314" lon="16.795337">
        <ele>156.774010</ele>
        <time>2026-05-06T13:35:00.094Z</time>
      </trkpt>
      <trkpt lat="48.018312" lon="16.794350">
        <ele>156.939770</ele>
        <time>2026-05-06T13:35:15.531Z</time>
      </trkpt>
      <trkpt lat="48.018288" lon="16.794135">
        <ele>156.976377</ele>
        <time>2026-05-06T13:35:18.861Z</time>
      </trkpt>
      <trkpt lat="48.018330" lon="16.793898">
        <ele>157.017553</ele>
        <time>2026-05-06T13:35:22.551Z</time>
      </trkpt>
      <trkpt lat="48.018857" lon="16.792676">
        <ele>157.093033</ele>
        <time>2026-05-06T13:35:45.678Z</time>
      </trkpt>
      <trkpt lat="48.018909" lon="16.792513">
        <ele>157.084841</ele>
        <time>2026-05-06T13:35:48.401Z</time>
      </trkpt>
      <trkpt lat="48.018865" lon="16.792430">
        <ele>157.080037</ele>
        <time>2026-05-06T13:35:49.965Z</time>
      </trkpt>
      <trkpt lat="48.018552" lon="16.792181">
        <ele>157.055991</ele>
        <time>2026-05-06T13:35:57.823Z</time>
      </trkpt>
      <trkpt lat="48.018590" lon="16.792081">
        <ele>157.050774</ele>
        <time>2026-05-06T13:35:59.500Z</time>
      </trkpt>
      <trkpt lat="48.018605" lon="16.791916">
        <ele>157.043220</ele>
        <time>2026-05-06T13:36:01.952Z</time>
      </trkpt>
      <trkpt lat="48.019333" lon="16.789851">
        <ele>156.271437</ele>
        <time>2026-05-06T13:36:33.794Z</time>
      </trkpt>
      <trkpt lat="48.019405" lon="16.789731">
        <ele>156.194159</ele>
        <time>2026-05-06T13:36:35.861Z</time>
      </trkpt>
      <trkpt lat="48.019570" lon="16.789183">
        <ele>155.906069</ele>
        <time>2026-05-06T13:36:43.536Z</time>
      </trkpt>
      <trkpt lat="48.019750" lon="16.788616">
        <ele>155.641654</ele>
        <time>2026-05-06T13:36:51.844Z</time>
      </trkpt>
      <trkpt lat="48.019982" lon="16.787904">
        <ele>155.384848</ele>
        <time>2026-05-06T13:37:02.261Z</time>
      </trkpt>
      <trkpt lat="48.020163" lon="16.787410">
        <ele>155.202209</ele>
        <time>2026-05-06T13:37:09.683Z</time>
      </trkpt>
      <trkpt lat="48.020350" lon="16.786915">
        <ele>155.017874</ele>
        <time>2026-05-06T13:37:17.756Z</time>
      </trkpt>
      <trkpt lat="48.020620" lon="16.786131">
        <ele>154.789225</ele>
        <time>2026-05-06T13:37:31.819Z</time>
      </trkpt>
      <trkpt lat="48.020719" lon="16.785721">
        <ele>154.718923</ele>
        <time>2026-05-06T13:37:38.439Z</time>
      </trkpt>
      <trkpt lat="48.020780" lon="16.785370">
        <ele>154.660434</ele>
        <time>2026-05-06T13:37:43.684Z</time>
      </trkpt>
      <trkpt lat="48.020805" lon="16.784821">
        <ele>154.571687</ele>
        <time>2026-05-06T13:37:51.483Z</time>
      </trkpt>
      <trkpt lat="48.020821" lon="16.784477">
        <ele>154.516072</ele>
        <time>2026-05-06T13:37:56.330Z</time>
      </trkpt>
      <trkpt lat="48.020954" lon="16.783853">
        <ele>154.413490</ele>
        <time>2026-05-06T13:38:05.223Z</time>
      </trkpt>
      <trkpt lat="48.021177" lon="16.783360">
        <ele>154.482947</ele>
        <time>2026-05-06T13:38:13.015Z</time>
      </trkpt>
      <trkpt lat="48.021231" lon="16.783243">
        <ele>154.499537</ele>
        <time>2026-05-06T13:38:14.827Z</time>
      </trkpt>
      <trkpt lat="48.021405" lon="16.782883">
        <ele>154.551371</ele>
        <time>2026-05-06T13:38:20.766Z</time>
      </trkpt>
      <trkpt lat="48.021489" lon="16.782714">
        <ele>154.575944</ele>
        <time>2026-05-06T13:38:23.899Z</time>
      </trkpt>
      <trkpt lat="48.021811" lon="16.782059">
        <ele>154.670811</ele>
        <time>2026-05-06T13:38:37.622Z</time>
      </trkpt>
      <trkpt lat="48.021878" lon="16.781889">
        <ele>154.693838</ele>
        <time>2026-05-06T13:38:41.138Z</time>
      </trkpt>
      <trkpt lat="48.021959" lon="16.781638">
        <ele>154.727469</ele>
        <time>2026-05-06T13:38:46.258Z</time>
      </trkpt>
      <trkpt lat="48.021967" lon="16.781608">
        <ele>154.744420</ele>
        <time>2026-05-06T13:38:47.042Z</time>
      </trkpt>
      <trkpt lat="48.022043" lon="16.781194">
        <ele>154.969752</ele>
        <time>2026-05-06T13:38:57.217Z</time>
      </trkpt>
      <trkpt lat="48.022042" lon="16.781005">
        <ele>155.068954</ele>
        <time>2026-05-06T13:39:01.711Z</time>
      </trkpt>
      <trkpt lat="48.022041" lon="16.780909">
        <ele>155.119348</ele>
        <time>2026-05-06T13:39:04.046Z</time>
      </trkpt>
      <trkpt lat="48.022109" lon="16.780752">
        <ele>155.217521</ele>
        <time>2026-05-06T13:39:08.518Z</time>
      </trkpt>
      <trkpt lat="48.022105" lon="16.780553">
        <ele>155.322016</ele>
        <time>2026-05-06T13:39:13.286Z</time>
      </trkpt>
      <trkpt lat="48.023172" lon="16.781192">
        <ele>156.200162</ele>
        <time>2026-05-06T13:39:40.614Z</time>
      </trkpt>
      <trkpt lat="48.023323" lon="16.781286">
        <ele>156.293140</ele>
        <time>2026-05-06T13:39:44.024Z</time>
      </trkpt>
      <trkpt lat="48.023399" lon="16.781316">
        <ele>156.337822</ele>
        <time>2026-05-06T13:39:45.703Z</time>
      </trkpt>
      <trkpt lat="48.023527" lon="16.781311">
        <ele>156.410608</ele>
        <time>2026-05-06T13:39:48.456Z</time>
      </trkpt>
      <trkpt lat="48.023735" lon="16.781247">
        <ele>156.531322</ele>
        <time>2026-05-06T13:39:53.248Z</time>
      </trkpt>
      <trkpt lat="48.023884" lon="16.781082">
        <ele>156.636721</ele>
        <time>2026-05-06T13:39:57.566Z</time>
      </trkpt>
      <trkpt lat="48.023999" lon="16.780884">
        <ele>156.736421</ele>
        <time>2026-05-06T13:40:01.742Z</time>
      </trkpt>
      <trkpt lat="48.024240" lon="16.780510">
        <ele>156.933868</ele>
        <time>2026-05-06T13:40:10.475Z</time>
      </trkpt>
      <trkpt lat="48.024421" lon="16.779996">
        <ele>157.154714</ele>
        <time>2026-05-06T13:40:20.894Z</time>
      </trkpt>
      <trkpt lat="48.024734" lon="16.778992">
        <ele>157.934726</ele>
        <time>2026-05-06T13:40:42.276Z</time>
      </trkpt>
      <trkpt lat="48.024779" lon="16.778858">
        <ele>158.040920</ele>
        <time>2026-05-06T13:40:45.097Z</time>
      </trkpt>
      <trkpt lat="48.025532" lon="16.779268">
        <ele>158.889524</ele>
        <time>2026-05-06T13:41:05.736Z</time>
      </trkpt>
      <trkpt lat="48.025918" lon="16.779489">
        <ele>158.991518</ele>
        <time>2026-05-06T13:41:15.598Z</time>
      </trkpt>
      <trkpt lat="48.026010" lon="16.779480">
        <ele>158.964355</ele>
        <time>2026-05-06T13:41:17.774Z</time>
      </trkpt>
      <trkpt lat="48.026038" lon="16.779387">
        <ele>158.944260</ele>
        <time>2026-05-06T13:41:19.360Z</time>
      </trkpt>
      <trkpt lat="48.026060" lon="16.779315">
        <ele>158.928663</ele>
        <time>2026-05-06T13:41:20.594Z</time>
      </trkpt>
      <trkpt lat="48.026098" lon="16.779370">
        <ele>158.913082</ele>
        <time>2026-05-06T13:41:21.839Z</time>
      </trkpt>
      <trkpt lat="48.026734" lon="16.779707">
        <ele>158.714291</ele>
        <time>2026-05-06T13:41:36.834Z</time>
      </trkpt>
      <trkpt lat="48.027343" lon="16.780038">
        <ele>158.471502</ele>
        <time>2026-05-06T13:41:49.379Z</time>
      </trkpt>
      <trkpt lat="48.027472" lon="16.780106">
        <ele>158.246109</ele>
        <time>2026-05-06T13:41:51.869Z</time>
      </trkpt>
      <trkpt lat="48.027834" lon="16.780256">
        <ele>157.627114</ele>
        <time>2026-05-06T13:41:58.527Z</time>
      </trkpt>
      <trkpt lat="48.027865" lon="16.780052">
        <ele>157.396572</ele>
        <time>2026-05-06T13:42:01.883Z</time>
      </trkpt>
      <trkpt lat="48.027900" lon="16.780046">
        <ele>157.338520</ele>
        <time>2026-05-06T13:42:02.736Z</time>
      </trkpt>
      <trkpt lat="48.027919" lon="16.780042">
        <ele>157.306902</ele>
        <time>2026-05-06T13:42:03.074Z</time>
      </trkpt>
      <trkpt lat="48.027990" lon="16.780025">
        <ele>157.188416</ele>
        <time>2026-05-06T13:42:04.323Z</time>
      </trkpt>
      <trkpt lat="48.028019" lon="16.780022">
        <ele>157.140514</ele>
        <time>2026-05-06T13:42:04.829Z</time>
      </trkpt>
      <trkpt lat="48.028073" lon="16.780016">
        <ele>157.051286</ele>
        <time>2026-05-06T13:42:06.139Z</time>
      </trkpt>
      <trkpt lat="48.028122" lon="16.779993">
        <ele>156.966658</ele>
        <time>2026-05-06T13:42:07.368Z</time>
      </trkpt>
      <trkpt lat="48.028140" lon="16.779952">
        <ele>156.912609</ele>
        <time>2026-05-06T13:42:08.159Z</time>
      </trkpt>
      <trkpt lat="48.028173" lon="16.779872">
        <ele>156.809027</ele>
        <time>2026-05-06T13:42:09.262Z</time>
      </trkpt>
      <trkpt lat="48.028200" lon="16.779898">
        <ele>156.756107</ele>
        <time>2026-05-06T13:42:09.824Z</time>
      </trkpt>
      <trkpt lat="48.028241" lon="16.779930">
        <ele>156.679897</ele>
        <time>2026-05-06T13:42:10.643Z</time>
      </trkpt>
      <trkpt lat="48.028291" lon="16.779960">
        <ele>156.591120</ele>
        <time>2026-05-06T13:42:11.582Z</time>
      </trkpt>
      <trkpt lat="48.028305" lon="16.780127">
        <ele>156.405644</ele>
        <time>2026-05-06T13:42:13.567Z</time>
      </trkpt>
      <trkpt lat="48.028354" lon="16.780228">
        <ele>156.268138</ele>
        <time>2026-05-06T13:42:15.039Z</time>
      </trkpt>
      <trkpt lat="48.028560" lon="16.780294">
        <ele>155.920980</ele>
        <time>2026-05-06T13:42:18.848Z</time>
      </trkpt>
      <trkpt lat="48.029624" lon="16.781057">
        <ele>154.464176</ele>
        <time>2026-05-06T13:42:41.260Z</time>
      </trkpt>
      <trkpt lat="48.030071" lon="16.781381">
        <ele>153.896005</ele>
        <time>2026-05-06T13:42:50.828Z</time>
      </trkpt>
      <trkpt lat="48.030355" lon="16.781589">
        <ele>153.534300</ele>
        <time>2026-05-06T13:42:56.864Z</time>
      </trkpt>
      <trkpt lat="48.031357" lon="16.782221">
        <ele>152.646826</ele>
        <time>2026-05-06T13:43:17.797Z</time>
      </trkpt>
      <trkpt lat="48.031435" lon="16.782299">
        <ele>152.570772</ele>
        <time>2026-05-06T13:43:19.650Z</time>
      </trkpt>
      <trkpt lat="48.031543" lon="16.782370">
        <ele>152.475150</ele>
        <time>2026-05-06T13:43:21.985Z</time>
      </trkpt>
      <trkpt lat="48.031652" lon="16.782448">
        <ele>152.377209</ele>
        <time>2026-05-06T13:43:24.421Z</time>
      </trkpt>
      <trkpt lat="48.031785" lon="16.782543">
        <ele>152.257743</ele>
        <time>2026-05-06T13:43:27.403Z</time>
      </trkpt>
      <trkpt lat="48.032614" lon="16.783095">
        <ele>152.071429</ele>
        <time>2026-05-06T13:43:46.608Z</time>
      </trkpt>
      <trkpt lat="48.032688" lon="16.783194">
        <ele>152.073799</ele>
        <time>2026-05-06T13:43:48.849Z</time>
      </trkpt>
      <trkpt lat="48.033010" lon="16.783531">
        <ele>152.083179</ele>
        <time>2026-05-06T13:43:57.861Z</time>
      </trkpt>
      <trkpt lat="48.033161" lon="16.783633">
        <ele>152.087133</ele>
        <time>2026-05-06T13:44:01.717Z</time>
      </trkpt>
      <trkpt lat="48.033391" lon="16.783620">
        <ele>152.092626</ele>
        <time>2026-05-06T13:44:07.180Z</time>
      </trkpt>
      <trkpt lat="48.033875" lon="16.783400">
        <ele>152.203540</ele>
        <time>2026-05-06T13:44:19.311Z</time>
      </trkpt>
      <trkpt lat="48.034540" lon="16.783038">
        <ele>152.496242</ele>
        <time>2026-05-06T13:44:35.726Z</time>
      </trkpt>
      <trkpt lat="48.035046" lon="16.782899">
        <ele>152.709028</ele>
        <time>2026-05-06T13:44:48.408Z</time>
      </trkpt>
      <trkpt lat="48.035082" lon="16.782892">
        <ele>152.724043</ele>
        <time>2026-05-06T13:44:49.318Z</time>
      </trkpt>
      <trkpt lat="48.035348" lon="16.782839">
        <ele>152.835034</ele>
        <time>2026-05-06T13:44:55.954Z</time>
      </trkpt>
      <trkpt lat="48.035802" lon="16.782755">
        <ele>152.830825</ele>
        <time>2026-05-06T13:45:06.801Z</time>
      </trkpt>
      <trkpt lat="48.036092" lon="16.782788">
        <ele>152.823046</ele>
        <time>2026-05-06T13:45:13.495Z</time>
      </trkpt>
      <trkpt lat="48.036381" lon="16.782955">
        <ele>152.814759</ele>
        <time>2026-05-06T13:45:20.520Z</time>
      </trkpt>
      <trkpt lat="48.036495" lon="16.783067">
        <ele>152.811111</ele>
        <time>2026-05-06T13:45:23.603Z</time>
      </trkpt>
      <trkpt lat="48.037345" lon="16.783668">
        <ele>152.696911</ele>
        <time>2026-05-06T13:45:42.694Z</time>
      </trkpt>
      <trkpt lat="48.037316" lon="16.783754">
        <ele>152.677145</ele>
        <time>2026-05-06T13:45:43.925Z</time>
      </trkpt>
      <trkpt lat="48.037692" lon="16.784013">
        <ele>152.550095</ele>
        <time>2026-05-06T13:45:52.207Z</time>
      </trkpt>
      <trkpt lat="48.038330" lon="16.784453">
        <ele>152.334470</ele>
        <time>2026-05-06T13:46:06.852Z</time>
      </trkpt>
      <trkpt lat="48.038449" lon="16.784575">
        <ele>152.290191</ele>
        <time>2026-05-06T13:46:10.097Z</time>
      </trkpt>
      <trkpt lat="48.038558" lon="16.784655">
        <ele>152.252926</ele>
        <time>2026-05-06T13:46:12.916Z</time>
      </trkpt>
      <trkpt lat="48.038710" lon="16.784765">
        <ele>152.442232</ele>
        <time>2026-05-06T13:46:16.941Z</time>
      </trkpt>
      <trkpt lat="48.038835" lon="16.784808">
        <ele>152.632481</ele>
        <time>2026-05-06T13:46:20.110Z</time>
      </trkpt>
      <trkpt lat="48.038897" lon="16.784852">
        <ele>152.734271</ele>
        <time>2026-05-06T13:46:21.844Z</time>
      </trkpt>
      <trkpt lat="48.038988" lon="16.784909">
        <ele>152.880607</ele>
        <time>2026-05-06T13:46:24.376Z</time>
      </trkpt>
      <trkpt lat="48.039530" lon="16.785205">
        <ele>153.736453</ele>
        <time>2026-05-06T13:46:40.278Z</time>
      </trkpt>
      <trkpt lat="48.040337" lon="16.785547">
        <ele>155.058908</ele>
        <time>2026-05-06T13:47:06.025Z</time>
      </trkpt>
      <trkpt lat="48.040856" lon="16.785715">
        <ele>156.724596</ele>
        <time>2026-05-06T13:47:24.146Z</time>
      </trkpt>
      <trkpt lat="48.041381" lon="16.785843">
        <ele>158.393150</ele>
        <time>2026-05-06T13:47:42.716Z</time>
      </trkpt>
      <trkpt lat="48.041909" lon="16.785918">
        <ele>160.056830</ele>
        <time>2026-05-06T13:48:01.922Z</time>
      </trkpt>
      <trkpt lat="48.042456" lon="16.785962">
        <ele>161.730041</ele>
        <time>2026-05-06T13:48:22.216Z</time>
      </trkpt>
      <trkpt lat="48.043110" lon="16.785951">
        <ele>163.705980</ele>
        <time>2026-05-06T13:48:45.872Z</time>
      </trkpt>
      <trkpt lat="48.043672" lon="16.785897">
        <ele>165.407350</ele>
        <time>2026-05-06T13:49:04.734Z</time>
      </trkpt>
      <trkpt lat="48.044235" lon="16.785798">
        <ele>166.538307</ele>
        <time>2026-05-06T13:49:21.610Z</time>
      </trkpt>
      <trkpt lat="48.045235" lon="16.785610">
        <ele>168.021096</ele>
        <time>2026-05-06T13:49:47.738Z</time>
      </trkpt>
      <trkpt lat="48.046040" lon="16.785404">
        <ele>169.568867</ele>
        <time>2026-05-06T13:50:11.230Z</time>
      </trkpt>
      <trkpt lat="48.047035" lon="16.785171">
        <ele>171.919704</ele>
        <time>2026-05-06T13:50:44.581Z</time>
      </trkpt>
      <trkpt lat="48.048620" lon="16.784799">
        <ele>175.222708</ele>
        <time>2026-05-06T13:51:35.979Z</time>
      </trkpt>
      <trkpt lat="48.049084" lon="16.784728">
        <ele>176.141631</ele>
        <time>2026-05-06T13:51:48.903Z</time>
      </trkpt>
      <trkpt lat="48.049782" lon="16.784754">
        <ele>176.641312</ele>
        <time>2026-05-06T13:52:06.276Z</time>
      </trkpt>
      <trkpt lat="48.050731" lon="16.784799">
        <ele>177.078179</ele>
        <time>2026-05-06T13:52:28.194Z</time>
      </trkpt>
      <trkpt lat="48.050956" lon="16.784836">
        <ele>177.182329</ele>
        <time>2026-05-06T13:52:33.292Z</time>
      </trkpt>
      <trkpt lat="48.051219" lon="16.784959">
        <ele>177.335653</ele>
        <time>2026-05-06T13:52:39.525Z</time>
      </trkpt>
      <trkpt lat="48.052622" lon="16.785885">
        <ele>178.216037</ele>
        <time>2026-05-06T13:53:17.935Z</time>
      </trkpt>
      <trkpt lat="48.053040" lon="16.786193">
        <ele>178.218126</ele>
        <time>2026-05-06T13:53:29.560Z</time>
      </trkpt>
      <trkpt lat="48.053706" lon="16.786798">
        <ele>178.188491</ele>
        <time>2026-05-06T13:53:47.697Z</time>
      </trkpt>
      <trkpt lat="48.055141" lon="16.788325">
        <ele>177.035846</ele>
        <time>2026-05-06T13:54:21.692Z</time>
      </trkpt>
      <trkpt lat="48.055762" lon="16.788884">
        <ele>176.423180</ele>
        <time>2026-05-06T13:54:35.593Z</time>
      </trkpt>
      <trkpt lat="48.056082" lon="16.789087">
        <ele>176.379079</ele>
        <time>2026-05-06T13:54:42.652Z</time>
      </trkpt>
      <trkpt lat="48.056134" lon="16.789114">
        <ele>176.372095</ele>
        <time>2026-05-06T13:54:43.794Z</time>
      </trkpt>
      <trkpt lat="48.056228" lon="16.789161">
        <ele>176.359520</ele>
        <time>2026-05-06T13:54:45.901Z</time>
      </trkpt>
      <trkpt lat="48.056260" lon="16.789183">
        <ele>176.355051</ele>
        <time>2026-05-06T13:54:46.650Z</time>
      </trkpt>
      <trkpt lat="48.056836" lon="16.789495">
        <ele>176.277326</ele>
        <time>2026-05-06T13:55:00.259Z</time>
      </trkpt>
      <trkpt lat="48.057520" lon="16.789869">
        <ele>176.203405</ele>
        <time>2026-05-06T13:55:17.624Z</time>
      </trkpt>
      <trkpt lat="48.057883" lon="16.789999">
        <ele>176.194299</ele>
        <time>2026-05-06T13:55:26.561Z</time>
      </trkpt>
      <trkpt lat="48.059212" lon="16.790376">
        <ele>176.109057</ele>
        <time>2026-05-06T13:55:56.029Z</time>
      </trkpt>
      <trkpt lat="48.060396" lon="16.790825">
        <ele>175.486303</ele>
        <time>2026-05-06T13:56:19.912Z</time>
      </trkpt>
      <trkpt lat="48.060974" lon="16.790932">
        <ele>175.355393</ele>
        <time>2026-05-06T13:56:32.213Z</time>
      </trkpt>
      <trkpt lat="48.061084" lon="16.790944">
        <ele>175.461484</ele>
        <time>2026-05-06T13:56:34.793Z</time>
      </trkpt>
      <trkpt lat="48.061352" lon="16.791026">
        <ele>175.724612</ele>
        <time>2026-05-06T13:56:41.619Z</time>
      </trkpt>
      <trkpt lat="48.061853" lon="16.791243">
        <ele>176.226316</ele>
        <time>2026-05-06T13:56:56.100Z</time>
      </trkpt>
      <trkpt lat="48.062784" lon="16.791852">
        <ele>176.751497</ele>
        <time>2026-05-06T13:57:25.504Z</time>
      </trkpt>
      <trkpt lat="48.063326" lon="16.792086">
        <ele>176.211648</ele>
        <time>2026-05-06T13:57:37.440Z</time>
      </trkpt>
      <trkpt lat="48.063601" lon="16.792159">
        <ele>175.944366</ele>
        <time>2026-05-06T13:57:42.588Z</time>
      </trkpt>
      <trkpt lat="48.064305" lon="16.792275">
        <ele>175.266572</ele>
        <time>2026-05-06T13:57:54.825Z</time>
      </trkpt>
      <trkpt lat="48.064438" lon="16.792273">
        <ele>174.974338</ele>
        <time>2026-05-06T13:57:56.978Z</time>
      </trkpt>
      <trkpt lat="48.064751" lon="16.792192">
        <ele>174.239748</ele>
        <time>2026-05-06T13:58:02.109Z</time>
      </trkpt>
      <trkpt lat="48.065083" lon="16.792102">
        <ele>173.459466</ele>
        <time>2026-05-06T13:58:07.819Z</time>
      </trkpt>
      <trkpt lat="48.065192" lon="16.792075">
        <ele>173.203962</ele>
        <time>2026-05-06T13:58:09.731Z</time>
      </trkpt>
      <trkpt lat="48.065335" lon="16.792033">
        <ele>172.866949</ele>
        <time>2026-05-06T13:58:12.283Z</time>
      </trkpt>
      <trkpt lat="48.065542" lon="16.791977">
        <ele>172.380480</ele>
        <time>2026-05-06T13:58:16.039Z</time>
      </trkpt>
      <trkpt lat="48.066072" lon="16.791809">
        <ele>171.127601</ele>
        <time>2026-05-06T13:58:25.684Z</time>
      </trkpt>
      <trkpt lat="48.066195" lon="16.791694">
        <ele>170.796878</ele>
        <time>2026-05-06T13:58:28.186Z</time>
      </trkpt>
      <trkpt lat="48.066454" lon="16.791316">
        <ele>169.973099</ele>
        <time>2026-05-06T13:58:34.457Z</time>
      </trkpt>
      <trkpt lat="48.066554" lon="16.791227">
        <ele>169.708174</ele>
        <time>2026-05-06T13:58:36.555Z</time>
      </trkpt>
      <trkpt lat="48.066936" lon="16.791238">
        <ele>168.838213</ele>
        <time>2026-05-06T13:58:43.179Z</time>
      </trkpt>
      <trkpt lat="48.067260" lon="16.791330">
        <ele>168.087313</ele>
        <time>2026-05-06T13:58:48.634Z</time>
      </trkpt>
      <trkpt lat="48.067835" lon="16.791625">
        <ele>166.900618</ele>
        <time>2026-05-06T13:58:59.003Z</time>
      </trkpt>
      <trkpt lat="48.067948" lon="16.791673">
        <ele>166.810604</ele>
        <time>2026-05-06T13:59:01.031Z</time>
      </trkpt>
      <trkpt lat="48.068086" lon="16.791728">
        <ele>166.701168</ele>
        <time>2026-05-06T13:59:03.500Z</time>
      </trkpt>
      <trkpt lat="48.068245" lon="16.791736">
        <ele>166.579256</ele>
        <time>2026-05-06T13:59:06.280Z</time>
      </trkpt>
      <trkpt lat="48.068334" lon="16.791728">
        <ele>166.510932</ele>
        <time>2026-05-06T13:59:07.870Z</time>
      </trkpt>
      <trkpt lat="48.068627" lon="16.791603">
        <ele>166.277458</ele>
        <time>2026-05-06T13:59:13.838Z</time>
      </trkpt>
      <trkpt lat="48.068699" lon="16.791570">
        <ele>166.219755</ele>
        <time>2026-05-06T13:59:15.576Z</time>
      </trkpt>
      <trkpt lat="48.069196" lon="16.791284">
        <ele>165.811712</ele>
        <time>2026-05-06T13:59:28.364Z</time>
      </trkpt>
      <trkpt lat="48.069430" lon="16.791178">
        <ele>165.624362</ele>
        <time>2026-05-06T13:59:34.831Z</time>
      </trkpt>
      <trkpt lat="48.069720" lon="16.791125">
        <ele>165.427415</ele>
        <time>2026-05-06T13:59:41.856Z</time>
      </trkpt>
      <trkpt lat="48.070168" lon="16.791230">
        <ele>165.122093</ele>
        <time>2026-05-06T13:59:51.539Z</time>
      </trkpt>
      <trkpt lat="48.071044" lon="16.791725">
        <ele>164.491624</ele>
        <time>2026-05-06T14:00:09.472Z</time>
      </trkpt>
      <trkpt lat="48.071218" lon="16.791835">
        <ele>164.324639</ele>
        <time>2026-05-06T14:00:12.727Z</time>
      </trkpt>
      <trkpt lat="48.072288" lon="16.792519">
        <ele>162.876753</ele>
        <time>2026-05-06T14:00:33.677Z</time>
      </trkpt>
      <trkpt lat="48.072871" lon="16.792694">
        <ele>162.181924</ele>
        <time>2026-05-06T14:00:45.674Z</time>
      </trkpt>
      <trkpt lat="48.073084" lon="16.792793">
        <ele>162.248961</ele>
        <time>2026-05-06T14:00:50.433Z</time>
      </trkpt>
      <trkpt lat="48.073961" lon="16.793365">
        <ele>162.536501</ele>
        <time>2026-05-06T14:01:12.451Z</time>
      </trkpt>
      <trkpt lat="48.073984" lon="16.793376">
        <ele>162.543758</ele>
        <time>2026-05-06T14:01:13.026Z</time>
      </trkpt>
      <trkpt lat="48.074048" lon="16.793408">
        <ele>162.564040</ele>
        <time>2026-05-06T14:01:14.649Z</time>
      </trkpt>
      <trkpt lat="48.075294" lon="16.793354">
        <ele>164.176161</ele>
        <time>2026-05-06T14:01:47.890Z</time>
      </trkpt>
      <trkpt lat="48.076543" lon="16.793415">
        <ele>166.624512</ele>
        <time>2026-05-06T14:02:28.600Z</time>
      </trkpt>
      <trkpt lat="48.077452" lon="16.793418">
        <ele>168.430106</ele>
        <time>2026-05-06T14:02:57.529Z</time>
      </trkpt>
      <trkpt lat="48.077699" lon="16.793485">
        <ele>168.928726</ele>
        <time>2026-05-06T14:03:04.755Z</time>
      </trkpt>
      <trkpt lat="48.078592" lon="16.794096">
        <ele>170.406272</ele>
        <time>2026-05-06T14:03:31.359Z</time>
      </trkpt>
      <trkpt lat="48.079603" lon="16.794791">
        <ele>171.646848</ele>
        <time>2026-05-06T14:04:00.812Z</time>
      </trkpt>
      <trkpt lat="48.081139" lon="16.795609">
        <ele>172.747435</ele>
        <time>2026-05-06T14:04:42.903Z</time>
      </trkpt>
      <trkpt lat="48.081685" lon="16.795834">
        <ele>172.679332</ele>
        <time>2026-05-06T14:04:55.139Z</time>
      </trkpt>
      <trkpt lat="48.081999" lon="16.795845">
        <ele>172.351963</ele>
        <time>2026-05-06T14:05:01.321Z</time>
      </trkpt>
      <trkpt lat="48.082354" lon="16.795797">
        <ele>171.980444</ele>
        <time>2026-05-06T14:05:07.985Z</time>
      </trkpt>
      <trkpt lat="48.083335" lon="16.795765">
        <ele>170.965343</ele>
        <time>2026-05-06T14:05:25.912Z</time>
      </trkpt>
      <trkpt lat="48.084343" lon="16.795874">
        <ele>169.983566</ele>
        <time>2026-05-06T14:05:45.203Z</time>
      </trkpt>
      <trkpt lat="48.084732" lon="16.795998">
        <ele>169.597198</ele>
        <time>2026-05-06T14:05:53.142Z</time>
      </trkpt>
      <trkpt lat="48.085578" lon="16.796414">
        <ele>169.252428</ele>
        <time>2026-05-06T14:06:11.447Z</time>
      </trkpt>
      <trkpt lat="48.087511" lon="16.797541">
        <ele>169.576353</ele>
        <time>2026-05-06T14:06:58.217Z</time>
      </trkpt>
      <trkpt lat="48.088421" lon="16.798050">
        <ele>170.154889</ele>
        <time>2026-05-06T14:07:23.235Z</time>
      </trkpt>
      <trkpt lat="48.088645" lon="16.798133">
        <ele>170.566430</ele>
        <time>2026-05-06T14:07:29.528Z</time>
      </trkpt>
      <trkpt lat="48.088864" lon="16.798099">
        <ele>170.959094</ele>
        <time>2026-05-06T14:07:35.563Z</time>
      </trkpt>
      <trkpt lat="48.089390" lon="16.797711">
        <ele>172.004865</ele>
        <time>2026-05-06T14:07:51.944Z</time>
      </trkpt>
      <trkpt lat="48.089680" lon="16.797540">
        <ele>172.560728</ele>
        <time>2026-05-06T14:08:01.141Z</time>
      </trkpt>
      <trkpt lat="48.090501" lon="16.797333">
        <ele>174.924466</ele>
        <time>2026-05-06T14:08:29.449Z</time>
      </trkpt>
      <trkpt lat="48.090535" lon="16.797240">
        <ele>175.192422</ele>
        <time>2026-05-06T14:08:31.985Z</time>
      </trkpt>
      <trkpt lat="48.090940" lon="16.796891">
        <ele>176.960608</ele>
        <time>2026-05-06T14:08:49.290Z</time>
      </trkpt>
      <trkpt lat="48.091223" lon="16.796664">
        <ele>178.175447</ele>
        <time>2026-05-06T14:09:01.871Z</time>
      </trkpt>
      <trkpt lat="48.091421" lon="16.796551">
        <ele>178.977238</ele>
        <time>2026-05-06T14:09:10.470Z</time>
      </trkpt>
      <trkpt lat="48.093587" lon="16.795771">
        <ele>188.550457</ele>
        <time>2026-05-06T14:10:41.063Z</time>
      </trkpt>
      <trkpt lat="48.093876" lon="16.795737">
        <ele>189.300465</ele>
        <time>2026-05-06T14:10:52.514Z</time>
      </trkpt>
      <trkpt lat="48.094711" lon="16.795623">
        <ele>191.469747</ele>
        <time>2026-05-06T14:11:20.425Z</time>
      </trkpt>
      <trkpt lat="48.094857" lon="16.795511">
        <ele>191.894174</ele>
        <time>2026-05-06T14:11:25.034Z</time>
      </trkpt>
      <trkpt lat="48.095098" lon="16.795172">
        <ele>192.749699</ele>
        <time>2026-05-06T14:11:33.544Z</time>
      </trkpt>
      <trkpt lat="48.095165" lon="16.795138">
        <ele>192.850424</ele>
        <time>2026-05-06T14:11:35.262Z</time>
      </trkpt>
      <trkpt lat="48.095283" lon="16.795809">
        <ele>192.993143</ele>
        <time>2026-05-06T14:11:46.050Z</time>
      </trkpt>
      <trkpt lat="48.095337" lon="16.795934">
        <ele>193.023763</ele>
        <time>2026-05-06T14:11:48.232Z</time>
      </trkpt>
      <trkpt lat="48.095407" lon="16.796022">
        <ele>193.051911</ele>
        <time>2026-05-06T14:11:50.200Z</time>
      </trkpt>
      <trkpt lat="48.095495" lon="16.796098">
        <ele>193.083197</ele>
        <time>2026-05-06T14:11:52.341Z</time>
      </trkpt>
      <trkpt lat="48.096523" lon="16.796569">
        <ele>193.340095</ele>
        <time>2026-05-06T14:12:17.279Z</time>
      </trkpt>
      <trkpt lat="48.096639" lon="16.796630">
        <ele>193.244576</ele>
        <time>2026-05-06T14:12:20.183Z</time>
      </trkpt>
      <trkpt lat="48.097253" lon="16.796928">
        <ele>192.743117</ele>
        <time>2026-05-06T14:12:34.568Z</time>
      </trkpt>
      <trkpt lat="48.101778" lon="16.799125">
        <ele>188.793967</ele>
        <time>2026-05-06T14:14:05.972Z</time>
      </trkpt>
      <trkpt lat="48.101522" lon="16.799879">
        <ele>188.756637</ele>
        <time>2026-05-06T14:14:19.065Z</time>
      </trkpt>
      <trkpt lat="48.100335" lon="16.803006">
        <ele>189.238924</ele>
        <time>2026-05-06T14:15:22.027Z</time>
      </trkpt>
      <trkpt lat="48.098785" lon="16.807085">
        <ele>190.620007</ele>
        <time>2026-05-06T14:16:45.704Z</time>
      </trkpt>
      <trkpt lat="48.098778" lon="16.807156">
        <ele>190.638700</ele>
        <time>2026-05-06T14:16:46.963Z</time>
      </trkpt>
      <trkpt lat="48.098787" lon="16.807303">
        <ele>190.677148</ele>
        <time>2026-05-06T14:16:49.494Z</time>
      </trkpt>
      <trkpt lat="48.099968" lon="16.811470">
        <ele>191.660515</ele>
        <time>2026-05-06T14:18:07.199Z</time>
      </trkpt>
      <trkpt lat="48.101176" lon="16.816723">
        <ele>193.699101</ele>
        <time>2026-05-06T14:19:48.385Z</time>
      </trkpt>
      <trkpt lat="48.102608" lon="16.822778">
        <ele>194.718174</ele>
        <time>2026-05-06T14:21:38.630Z</time>
      </trkpt>
      <trkpt lat="48.102660" lon="16.823260">
        <ele>194.730030</ele>
        <time>2026-05-06T14:21:46.526Z</time>
      </trkpt>
      <trkpt lat="48.103351" lon="16.834052">
        <ele>190.776631</ele>
        <time>2026-05-06T14:24:31.697Z</time>
      </trkpt>
      <trkpt lat="48.103603" lon="16.835154">
        <ele>190.235389</ele>
        <time>2026-05-06T14:24:48.699Z</time>
      </trkpt>
      <trkpt lat="48.103643" lon="16.835448">
        <ele>190.092780</ele>
        <time>2026-05-06T14:24:53.082Z</time>
      </trkpt>
      <trkpt lat="48.103852" lon="16.839570">
        <ele>188.304922</ele>
        <time>2026-05-06T14:25:55.751Z</time>
      </trkpt>
      <trkpt lat="48.103879" lon="16.840104">
        <ele>188.083292</ele>
        <time>2026-05-06T14:26:03.887Z</time>
      </trkpt>
      <trkpt lat="48.104050" lon="16.842607">
        <ele>187.163973</ele>
        <time>2026-05-06T14:26:41.756Z</time>
      </trkpt>
      <trkpt lat="48.104023" lon="16.842622">
        <ele>187.161154</ele>
        <time>2026-05-06T14:26:42.407Z</time>
      </trkpt>
      <trkpt lat="48.104227" lon="16.843199">
        <ele>187.118469</ele>
        <time>2026-05-06T14:26:52.461Z</time>
      </trkpt>
      <trkpt lat="48.107507" lon="16.851850">
        <ele>186.549928</ele>
        <time>2026-05-06T14:29:35.783Z</time>
      </trkpt>
      <trkpt lat="48.107539" lon="16.852055">
        <ele>186.504278</ele>
        <time>2026-05-06T14:29:39.331Z</time>
      </trkpt>
      <trkpt lat="48.107663" lon="16.852270">
        <ele>186.442675</ele>
        <time>2026-05-06T14:29:46.325Z</time>
      </trkpt>
      <trkpt lat="48.107613" lon="16.852527">
        <ele>186.384630</ele>
        <time>2026-05-06T14:29:50.230Z</time>
      </trkpt>
      <trkpt lat="48.107638" lon="16.852632">
        <ele>186.360458</ele>
        <time>2026-05-06T14:29:51.822Z</time>
      </trkpt>
      <trkpt lat="48.107698" lon="16.852676">
        <ele>186.338763</ele>
        <time>2026-05-06T14:29:53.261Z</time>
      </trkpt>
      <trkpt lat="48.107812" lon="16.852728">
        <ele>186.300063</ele>
        <time>2026-05-06T14:29:57.571Z</time>
      </trkpt>
      <trkpt lat="48.107953" lon="16.852224">
        <ele>186.181573</ele>
        <time>2026-05-06T14:30:10.650Z</time>
      </trkpt>
      <trkpt lat="48.108004" lon="16.852111">
        <ele>186.151998</ele>
        <time>2026-05-06T14:30:13.881Z</time>
      </trkpt>
      <trkpt lat="48.108141" lon="16.852031">
        <ele>186.104246</ele>
        <time>2026-05-06T14:30:19.011Z</time>
      </trkpt>
      <trkpt lat="48.109494" lon="16.851621">
        <ele>185.383105</ele>
        <time>2026-05-06T14:31:06.804Z</time>
      </trkpt>
      <trkpt lat="48.109646" lon="16.851621">
        <ele>185.296088</ele>
        <time>2026-05-06T14:31:12.072Z</time>
      </trkpt>
      <trkpt lat="48.109978" lon="16.851689">
        <ele>185.104253</ele>
        <time>2026-05-06T14:31:23.748Z</time>
      </trkpt>
      <trkpt lat="48.110245" lon="16.851660">
        <ele>184.989996</ele>
        <time>2026-05-06T14:31:33.343Z</time>
      </trkpt>
      <trkpt lat="48.110382" lon="16.851576">
        <ele>185.005580</ele>
        <time>2026-05-06T14:31:38.704Z</time>
      </trkpt>
      <trkpt lat="48.110573" lon="16.851321">
        <ele>185.032516</ele>
        <time>2026-05-06T14:31:48.066Z</time>
      </trkpt>
      <trkpt lat="48.110620" lon="16.851277">
        <ele>185.038351</ele>
        <time>2026-05-06T14:31:49.664Z</time>
      </trkpt>
      <trkpt lat="48.110655" lon="16.851156">
        <ele>185.047620</ele>
        <time>2026-05-06T14:31:52.241Z</time>
      </trkpt>
      <trkpt lat="48.110684" lon="16.851248">
        <ele>185.054771</ele>
        <time>2026-05-06T14:31:53.906Z</time>
      </trkpt>
      <trkpt lat="48.110685" lon="16.851258">
        <ele>185.055482</ele>
        <time>2026-05-06T14:31:54.071Z</time>
      </trkpt>
      <trkpt lat="48.110684" lon="16.851248">
        <ele>185.056192</ele>
        <time>2026-05-06T14:31:54.239Z</time>
      </trkpt>
      <trkpt lat="48.110655" lon="16.851156">
        <ele>185.063343</ele>
        <time>2026-05-06T14:31:55.926Z</time>
      </trkpt>
      <trkpt lat="48.110620" lon="16.851277">
        <ele>185.072612</ele>
        <time>2026-05-06T14:31:58.520Z</time>
      </trkpt>
      <trkpt lat="48.110573" lon="16.851321">
        <ele>185.078447</ele>
        <time>2026-05-06T14:32:00.156Z</time>
      </trkpt>
      <trkpt lat="48.110382" lon="16.851576">
        <ele>185.105383</ele>
        <time>2026-05-06T14:32:09.767Z</time>
      </trkpt>
      <trkpt lat="48.110245" lon="16.851660">
        <ele>185.120967</ele>
        <time>2026-05-06T14:32:15.366Z</time>
      </trkpt>
      <trkpt lat="48.109978" lon="16.851689">
        <ele>185.149148</ele>
        <time>2026-05-06T14:32:25.671Z</time>
      </trkpt>
      <trkpt lat="48.109646" lon="16.851621">
        <ele>185.238870</ele>
        <time>2026-05-06T14:32:38.932Z</time>
      </trkpt>
      <trkpt lat="48.109494" lon="16.851621">
        <ele>185.333086</ele>
        <time>2026-05-06T14:32:45.003Z</time>
      </trkpt>
      <trkpt lat="48.108141" lon="16.852031">
        <ele>186.188721</ele>
        <time>2026-05-06T14:33:40.018Z</time>
      </trkpt>
      <trkpt lat="48.108004" lon="16.852111">
        <ele>186.279865</ele>
        <time>2026-05-06T14:33:45.846Z</time>
      </trkpt>
      <trkpt lat="48.107953" lon="16.852224">
        <ele>186.309690</ele>
        <time>2026-05-06T14:33:49.459Z</time>
      </trkpt>
      <trkpt lat="48.107812" lon="16.852728">
        <ele>186.410831</ele>
        <time>2026-05-06T14:34:03.664Z</time>
      </trkpt>
      <trkpt lat="48.107698" lon="16.852676">
        <ele>186.443864</ele>
        <time>2026-05-06T14:34:08.282Z</time>
      </trkpt>
      <trkpt lat="48.107638" lon="16.852632">
        <ele>186.462382</ele>
        <time>2026-05-06T14:34:09.845Z</time>
      </trkpt>
      <trkpt lat="48.107613" lon="16.852527">
        <ele>186.483015</ele>
        <time>2026-05-06T14:34:11.601Z</time>
      </trkpt>
      <trkpt lat="48.107663" lon="16.852270">
        <ele>186.532560</ele>
        <time>2026-05-06T14:34:15.762Z</time>
      </trkpt>
      <trkpt lat="48.107539" lon="16.852055">
        <ele>186.585143</ele>
        <time>2026-05-06T14:34:22.896Z</time>
      </trkpt>
      <trkpt lat="48.107489" lon="16.852117">
        <ele>186.603137</ele>
        <time>2026-05-06T14:34:24.512Z</time>
      </trkpt>
      <trkpt lat="48.104655" lon="16.854097">
        <ele>186.961682</ele>
        <time>2026-05-06T14:35:43.136Z</time>
      </trkpt>
      <trkpt lat="48.104435" lon="16.854250">
        <ele>186.943056</ele>
        <time>2026-05-06T14:35:49.452Z</time>
      </trkpt>
      <trkpt lat="48.104090" lon="16.854491">
        <ele>186.913822</ele>
        <time>2026-05-06T14:35:59.057Z</time>
      </trkpt>
      <trkpt lat="48.103989" lon="16.854562">
        <ele>186.905255</ele>
        <time>2026-05-06T14:36:01.852Z</time>
      </trkpt>
      <trkpt lat="48.105091" lon="16.856943">
        <ele>186.021048</ele>
        <time>2026-05-06T14:36:40.564Z</time>
      </trkpt>
      <trkpt lat="48.105743" lon="16.858311">
        <ele>185.273915</ele>
        <time>2026-05-06T14:37:04.559Z</time>
      </trkpt>
      <trkpt lat="48.105999" lon="16.858833">
        <ele>184.971513</ele>
        <time>2026-05-06T14:37:13.474Z</time>
      </trkpt>
      <trkpt lat="48.107067" lon="16.861090">
        <ele>183.087710</ele>
        <time>2026-05-06T14:37:47.471Z</time>
      </trkpt>
      <trkpt lat="48.107567" lon="16.862157">
        <ele>182.853924</ele>
        <time>2026-05-06T14:38:05.152Z</time>
      </trkpt>
      <trkpt lat="48.107824" lon="16.862727">
        <ele>183.173178</ele>
        <time>2026-05-06T14:38:16.706Z</time>
      </trkpt>
      <trkpt lat="48.108188" lon="16.863484">
        <ele>183.606192</ele>
        <time>2026-05-06T14:38:34.118Z</time>
      </trkpt>
      <trkpt lat="48.108387" lon="16.863914">
        <ele>183.854445</ele>
        <time>2026-05-06T14:38:44.332Z</time>
      </trkpt>
      <trkpt lat="48.109088" lon="16.865396">
        <ele>184.838979</ele>
        <time>2026-05-06T14:39:16.559Z</time>
      </trkpt>
      <trkpt lat="48.109113" lon="16.865533">
        <ele>184.915969</ele>
        <time>2026-05-06T14:39:18.763Z</time>
      </trkpt>
      <trkpt lat="48.108310" lon="16.865460">
        <ele>185.269125</ele>
        <time>2026-05-06T14:39:36.502Z</time>
      </trkpt>
      <trkpt lat="48.106587" lon="16.865236">
        <ele>185.402154</ele>
        <time>2026-05-06T14:40:13.993Z</time>
      </trkpt>
      <trkpt lat="48.106027" lon="16.865179">
        <ele>185.720767</ele>
        <time>2026-05-06T14:40:28.530Z</time>
      </trkpt>
      <trkpt lat="48.105411" lon="16.865116">
        <ele>186.071249</ele>
        <time>2026-05-06T14:40:44.449Z</time>
      </trkpt>
      <trkpt lat="48.105174" lon="16.865066">
        <ele>186.207109</ele>
        <time>2026-05-06T14:40:50.389Z</time>
      </trkpt>
      <trkpt lat="48.104693" lon="16.864978">
        <ele>186.199957</ele>
        <time>2026-05-06T14:41:02.180Z</time>
      </trkpt>
      <trkpt lat="48.104581" lon="16.864984">
        <ele>186.183400</ele>
        <time>2026-05-06T14:41:04.866Z</time>
      </trkpt>
      <trkpt lat="48.104485" lon="16.864977">
        <ele>186.169201</ele>
        <time>2026-05-06T14:41:07.011Z</time>
      </trkpt>
      <trkpt lat="48.104346" lon="16.864959">
        <ele>186.148589</ele>
        <time>2026-05-06T14:41:10.131Z</time>
      </trkpt>
      <trkpt lat="48.104257" lon="16.864949">
        <ele>186.135404</ele>
        <time>2026-05-06T14:41:12.162Z</time>
      </trkpt>
      <trkpt lat="48.104166" lon="16.864924">
        <ele>186.121736</ele>
        <time>2026-05-06T14:41:14.121Z</time>
      </trkpt>
      <trkpt lat="48.104026" lon="16.865008">
        <ele>186.099455</ele>
        <time>2026-05-06T14:41:17.154Z</time>
      </trkpt>
      <trkpt lat="48.103887" lon="16.865156">
        <ele>186.074259</ele>
        <time>2026-05-06T14:41:20.545Z</time>
      </trkpt>
      <trkpt lat="48.103784" lon="16.865369">
        <ele>186.048315</ele>
        <time>2026-05-06T14:41:24.085Z</time>
      </trkpt>
      <trkpt lat="48.104138" lon="16.865866">
        <ele>185.924734</ele>
        <time>2026-05-06T14:41:33.920Z</time>
      </trkpt>
      <trkpt lat="48.104268" lon="16.866166">
        <ele>185.774243</ele>
        <time>2026-05-06T14:41:38.852Z</time>
      </trkpt>
      <trkpt lat="48.104369" lon="16.866567">
        <ele>185.593897</ele>
        <time>2026-05-06T14:41:44.582Z</time>
      </trkpt>
      <trkpt lat="48.104429" lon="16.866838">
        <ele>185.473755</ele>
        <time>2026-05-06T14:41:48.315Z</time>
      </trkpt>
      <trkpt lat="48.104490" lon="16.867457">
        <ele>185.210458</ele>
        <time>2026-05-06T14:41:56.670Z</time>
      </trkpt>
      <trkpt lat="48.104523" lon="16.868371">
        <ele>184.834736</ele>
        <time>2026-05-06T14:42:09.189Z</time>
      </trkpt>
      <trkpt lat="48.104550" lon="16.868544">
        <ele>184.780875</ele>
        <time>2026-05-06T14:42:11.582Z</time>
      </trkpt>
      <trkpt lat="48.104625" lon="16.868749">
        <ele>184.710009</ele>
        <time>2026-05-06T14:42:14.723Z</time>
      </trkpt>
      <trkpt lat="48.104789" lon="16.868912">
        <ele>184.620647</ele>
        <time>2026-05-06T14:42:18.682Z</time>
      </trkpt>
      <trkpt lat="48.105170" lon="16.869083">
        <ele>184.440073</ele>
        <time>2026-05-06T14:42:26.800Z</time>
      </trkpt>
      <trkpt lat="48.105214" lon="16.869161">
        <ele>184.409118</ele>
        <time>2026-05-06T14:42:28.216Z</time>
      </trkpt>
      <trkpt lat="48.105506" lon="16.870018">
        <ele>184.117441</ele>
        <time>2026-05-06T14:42:41.830Z</time>
      </trkpt>
      <trkpt lat="48.105771" lon="16.870656">
        <ele>183.961379</ele>
        <time>2026-05-06T14:42:52.332Z</time>
      </trkpt>
      <trkpt lat="48.106169" lon="16.871472">
        <ele>183.798770</ele>
        <time>2026-05-06T14:43:06.765Z</time>
      </trkpt>
      <trkpt lat="48.106713" lon="16.872346">
        <ele>183.603980</ele>
        <time>2026-05-06T14:43:24.319Z</time>
      </trkpt>
      <trkpt lat="48.107244" lon="16.873100">
        <ele>183.254260</ele>
        <time>2026-05-06T14:43:39.214Z</time>
      </trkpt>
      <trkpt lat="48.107956" lon="16.874042">
        <ele>182.800208</ele>
        <time>2026-05-06T14:43:58.596Z</time>
      </trkpt>
      <trkpt lat="48.108325" lon="16.874516">
        <ele>182.628819</ele>
        <time>2026-05-06T14:44:08.515Z</time>
      </trkpt>
      <trkpt lat="48.109029" lon="16.875522">
        <ele>182.319874</ele>
        <time>2026-05-06T14:44:29.350Z</time>
      </trkpt>
      <trkpt lat="48.110042" lon="16.877195">
        <ele>181.993980</ele>
        <time>2026-05-06T14:45:01.566Z</time>
      </trkpt>
      <trkpt lat="48.110515" lon="16.878097">
        <ele>181.861696</ele>
        <time>2026-05-06T14:45:18.494Z</time>
      </trkpt>
      <trkpt lat="48.111893" lon="16.880949">
        <ele>181.414129</ele>
        <time>2026-05-06T14:46:09.267Z</time>
      </trkpt>
      <trkpt lat="48.113607" lon="16.884466">
        <ele>180.185973</ele>
        <time>2026-05-06T14:47:09.945Z</time>
      </trkpt>
      <trkpt lat="48.115170" lon="16.887765">
        <ele>177.138648</ele>
        <time>2026-05-06T14:48:01.124Z</time>
      </trkpt>
      <trkpt lat="48.115879" lon="16.889214">
        <ele>175.648337</ele>
        <time>2026-05-06T14:48:23.389Z</time>
      </trkpt>
      <trkpt lat="48.116588" lon="16.890662">
        <ele>174.276791</ele>
        <time>2026-05-06T14:48:46.004Z</time>
      </trkpt>
      <trkpt lat="48.116640" lon="16.890835">
        <ele>174.131880</ele>
        <time>2026-05-06T14:48:48.493Z</time>
      </trkpt>
      <trkpt lat="48.116669" lon="16.890986">
        <ele>174.011870</ele>
        <time>2026-05-06T14:48:50.564Z</time>
      </trkpt>
      <trkpt lat="48.116805" lon="16.891389">
        <ele>173.660948</ele>
        <time>2026-05-06T14:48:56.526Z</time>
      </trkpt>
      <trkpt lat="48.117039" lon="16.891824">
        <ele>173.216636</ele>
        <time>2026-05-06T14:49:03.910Z</time>
      </trkpt>
      <trkpt lat="48.117297" lon="16.892146">
        <ele>172.816562</ele>
        <time>2026-05-06T14:49:10.543Z</time>
      </trkpt>
      <trkpt lat="48.118612" lon="16.894827">
        <ele>169.440190</ele>
        <time>2026-05-06T14:49:51.242Z</time>
      </trkpt>
      <trkpt lat="48.119298" lon="16.896315">
        <ele>167.268201</ele>
        <time>2026-05-06T14:50:11.874Z</time>
      </trkpt>
      <trkpt lat="48.121029" lon="16.899877">
        <ele>162.471929</ele>
        <time>2026-05-06T14:51:05.922Z</time>
      </trkpt>
      <trkpt lat="48.121057" lon="16.899991">
        <ele>162.409301</ele>
        <time>2026-05-06T14:51:07.373Z</time>
      </trkpt>
      <trkpt lat="48.121051" lon="16.900184">
        <ele>162.309688</ele>
        <time>2026-05-06T14:51:09.678Z</time>
      </trkpt>
      <trkpt lat="48.121262" lon="16.900571">
        <ele>162.052070</ele>
        <time>2026-05-06T14:51:15.733Z</time>
      </trkpt>
      <trkpt lat="48.121464" lon="16.901068">
        <ele>161.752075</ele>
        <time>2026-05-06T14:51:22.904Z</time>
      </trkpt>
      <trkpt lat="48.122595" lon="16.903341">
        <ele>161.837211</ele>
        <time>2026-05-06T14:52:05.570Z</time>
      </trkpt>
      <trkpt lat="48.122688" lon="16.903531">
        <ele>161.950348</ele>
        <time>2026-05-06T14:52:10.012Z</time>
      </trkpt>
      <trkpt lat="48.122750" lon="16.903639">
        <ele>162.018749</ele>
        <time>2026-05-06T14:52:12.665Z</time>
      </trkpt>
      <trkpt lat="48.122880" lon="16.903490">
        <ele>162.136497</ele>
        <time>2026-05-06T14:52:17.327Z</time>
      </trkpt>
      <trkpt lat="48.123136" lon="16.903081">
        <ele>162.410943</ele>
        <time>2026-05-06T14:52:28.143Z</time>
      </trkpt>
      <trkpt lat="48.123378" lon="16.902593">
        <ele>162.776874</ele>
        <time>2026-05-06T14:52:39.951Z</time>
      </trkpt>
      <trkpt lat="48.123481" lon="16.902462">
        <ele>162.898711</ele>
        <time>2026-05-06T14:52:43.784Z</time>
      </trkpt>
      <trkpt lat="48.123612" lon="16.902414">
        <ele>163.020321</ele>
        <time>2026-05-06T14:52:47.588Z</time>
      </trkpt>
      <trkpt lat="48.123835" lon="16.902449">
        <ele>163.222509</ele>
        <time>2026-05-06T14:52:53.724Z</time>
      </trkpt>
      <trkpt lat="48.124087" lon="16.902552">
        <ele>163.458052</ele>
        <time>2026-05-06T14:53:00.462Z</time>
      </trkpt>
      <trkpt lat="48.124141" lon="16.902577">
        <ele>163.509018</ele>
        <time>2026-05-06T14:53:01.832Z</time>
      </trkpt>
      <trkpt lat="48.124707" lon="16.902666">
        <ele>163.993291</ele>
        <time>2026-05-06T14:53:14.802Z</time>
      </trkpt>
      <trkpt lat="48.124904" lon="16.902718">
        <ele>163.829133</ele>
        <time>2026-05-06T14:53:19.050Z</time>
      </trkpt>
      <trkpt lat="48.125013" lon="16.902751">
        <ele>163.737874</ele>
        <time>2026-05-06T14:53:21.390Z</time>
      </trkpt>
      <trkpt lat="48.126623" lon="16.903370">
        <ele>162.023947</ele>
        <time>2026-05-06T14:53:53.666Z</time>
      </trkpt>
      <trkpt lat="48.127175" lon="16.903677">
        <ele>160.465311</ele>
        <time>2026-05-06T14:54:03.908Z</time>
      </trkpt>
      <trkpt lat="48.127438" lon="16.903770">
        <ele>159.749994</ele>
        <time>2026-05-06T14:54:08.383Z</time>
      </trkpt>
      <trkpt lat="48.127699" lon="16.903820">
        <ele>159.053475</ele>
        <time>2026-05-06T14:54:12.657Z</time>
      </trkpt>
      <trkpt lat="48.128051" lon="16.903909">
        <ele>158.108519</ele>
        <time>2026-05-06T14:54:18.387Z</time>
      </trkpt>
      <trkpt lat="48.128312" lon="16.903971">
        <ele>157.362932</ele>
        <time>2026-05-06T14:54:22.548Z</time>
      </trkpt>
      <trkpt lat="48.128577" lon="16.904028">
        <ele>156.563787</ele>
        <time>2026-05-06T14:54:26.743Z</time>
      </trkpt>
      <trkpt lat="48.128837" lon="16.904069">
        <ele>155.783392</ele>
        <time>2026-05-06T14:54:30.883Z</time>
      </trkpt>
      <trkpt lat="48.129044" lon="16.904093">
        <ele>155.163643</ele>
        <time>2026-05-06T14:54:34.207Z</time>
      </trkpt>
      <trkpt lat="48.129550" lon="16.904049">
        <ele>153.650674</ele>
        <time>2026-05-06T14:54:42.603Z</time>
      </trkpt>
      <trkpt lat="48.129744" lon="16.904052">
        <ele>153.071547</ele>
        <time>2026-05-06T14:54:45.938Z</time>
      </trkpt>
      <trkpt lat="48.130069" lon="16.904067">
        <ele>152.379137</ele>
        <time>2026-05-06T14:54:51.645Z</time>
      </trkpt>
      <trkpt lat="48.130210" lon="16.904074">
        <ele>152.348703</ele>
        <time>2026-05-06T14:54:54.231Z</time>
      </trkpt>
      <trkpt lat="48.130401" lon="16.904082">
        <ele>152.307482</ele>
        <time>2026-05-06T14:54:57.961Z</time>
      </trkpt>
      <trkpt lat="48.130630" lon="16.904135">
        <ele>152.257494</ele>
        <time>2026-05-06T14:55:02.815Z</time>
      </trkpt>
      <trkpt lat="48.130929" lon="16.904302">
        <ele>152.188654</ele>
        <time>2026-05-06T14:55:10.196Z</time>
      </trkpt>
      <trkpt lat="48.130954" lon="16.904213">
        <ele>152.174750</ele>
        <time>2026-05-06T14:55:11.813Z</time>
      </trkpt>
      <trkpt lat="48.130988" lon="16.904133">
        <ele>152.161095</ele>
        <time>2026-05-06T14:55:13.298Z</time>
      </trkpt>
      <trkpt lat="48.131092" lon="16.903897">
        <ele>152.120375</ele>
        <time>2026-05-06T14:55:18.091Z</time>
      </trkpt>
      <trkpt lat="48.131500" lon="16.903454">
        <ele>152.010039</ele>
        <time>2026-05-06T14:55:30.622Z</time>
      </trkpt>
      <trkpt lat="48.131866" lon="16.903140">
        <ele>151.784959</ele>
        <time>2026-05-06T14:55:41.094Z</time>
      </trkpt>
      <trkpt lat="48.131956" lon="16.903097">
        <ele>151.734545</ele>
        <time>2026-05-06T14:55:43.406Z</time>
      </trkpt>
      <trkpt lat="48.132477" lon="16.903688">
        <ele>151.385802</ele>
        <time>2026-05-06T14:55:56.977Z</time>
      </trkpt>
      <trkpt lat="48.132989" lon="16.904331">
        <ele>151.034735</ele>
        <time>2026-05-06T14:56:09.141Z</time>
      </trkpt>
      <trkpt lat="48.133039" lon="16.904397">
        <ele>151.007398</ele>
        <time>2026-05-06T14:56:10.313Z</time>
      </trkpt>
      <trkpt lat="48.133663" lon="16.905135">
        <ele>150.681270</ele>
        <time>2026-05-06T14:56:24.486Z</time>
      </trkpt>
      <trkpt lat="48.133972" lon="16.905531">
        <ele>150.514463</ele>
        <time>2026-05-06T14:56:32.813Z</time>
      </trkpt>
      <trkpt lat="48.134006" lon="16.905570">
        <ele>150.496897</ele>
        <time>2026-05-06T14:56:33.778Z</time>
      </trkpt>
      <trkpt lat="48.134345" lon="16.905999">
        <ele>150.316998</ele>
        <time>2026-05-06T14:56:45.637Z</time>
      </trkpt>
      <trkpt lat="48.134402" lon="16.906077">
        <ele>150.734686</ele>
        <time>2026-05-06T14:56:47.955Z</time>
      </trkpt>
      <trkpt lat="48.134448" lon="16.906140">
        <ele>151.071895</ele>
        <time>2026-05-06T14:56:49.805Z</time>
      </trkpt>
      <trkpt lat="48.134610" lon="16.906356">
        <ele>152.245262</ele>
        <time>2026-05-06T14:56:56.894Z</time>
      </trkpt>
      <trkpt lat="48.135092" lon="16.907035">
        <ele>155.824942</ele>
        <time>2026-05-06T14:57:23.651Z</time>
      </trkpt>
      <trkpt lat="48.135131" lon="16.907127">
        <ele>156.218521</ele>
        <time>2026-05-06T14:57:27.079Z</time>
      </trkpt>
      <trkpt lat="48.135134" lon="16.907305">
        <ele>156.861505</ele>
        <time>2026-05-06T14:57:33.000Z</time>
      </trkpt>
      <trkpt lat="48.135266" lon="16.907398">
        <ele>157.650760</ele>
        <time>2026-05-06T14:57:40.788Z</time>
      </trkpt>
      <trkpt lat="48.135292" lon="16.907419">
        <ele>157.810581</ele>
        <time>2026-05-06T14:57:42.385Z</time>
      </trkpt>
      <trkpt lat="48.135318" lon="16.907464">
        <ele>158.025518</ele>
        <time>2026-05-06T14:57:44.687Z</time>
      </trkpt>
      <trkpt lat="48.135407" lon="16.907805">
        <ele>159.347722</ele>
        <time>2026-05-06T14:57:58.391Z</time>
      </trkpt>
      <trkpt lat="48.135476" lon="16.907940">
        <ele>159.961763</ele>
        <time>2026-05-06T14:58:05.219Z</time>
      </trkpt>
      <trkpt lat="48.135572" lon="16.908045">
        <ele>160.873679</ele>
        <time>2026-05-06T14:58:12.354Z</time>
      </trkpt>
      <trkpt lat="48.135812" lon="16.908181">
        <ele>162.931422</ele>
        <time>2026-05-06T14:58:27.970Z</time>
      </trkpt>
      <trkpt lat="48.136168" lon="16.908550">
        <ele>166.402896</ele>
        <time>2026-05-06T14:58:55.199Z</time>
      </trkpt>
      <trkpt lat="48.136515" lon="16.908749">
        <ele>169.382548</ele>
        <time>2026-05-06T14:59:18.001Z</time>
      </trkpt>
      <trkpt lat="48.136821" lon="16.909030">
        <ele>172.260712</ele>
        <time>2026-05-06T14:59:37.459Z</time>
      </trkpt>
      <trkpt lat="48.137332" lon="16.908554">
        <ele>174.549879</ele>
        <time>2026-05-06T15:00:03.511Z</time>
      </trkpt>
      <trkpt lat="48.137380" lon="16.908432">
        <ele>174.572530</ele>
        <time>2026-05-06T15:00:06.710Z</time>
      </trkpt>
      <trkpt lat="48.137657" lon="16.909033">
        <ele>174.689349</ele>
        <time>2026-05-06T15:00:19.164Z</time>
      </trkpt>
      <trkpt lat="48.137711" lon="16.909151">
        <ele>174.712232</ele>
        <time>2026-05-06T15:00:21.007Z</time>
      </trkpt>
      <trkpt lat="48.137947" lon="16.909673">
        <ele>174.813075</ele>
        <time>2026-05-06T15:00:28.385Z</time>
      </trkpt>
      <trkpt lat="48.137984" lon="16.909811">
        <ele>174.836860</ele>
        <time>2026-05-06T15:00:30.024Z</time>
      </trkpt>
      <trkpt lat="48.138093" lon="16.909818">
        <ele>174.863008</ele>
        <time>2026-05-06T15:00:31.797Z</time>
      </trkpt>
      <trkpt lat="48.138256" lon="16.909907">
        <ele>174.865752</ele>
        <time>2026-05-06T15:00:34.568Z</time>
      </trkpt>
      <trkpt lat="48.138400" lon="16.910059">
        <ele>173.979395</ele>
        <time>2026-05-06T15:00:37.306Z</time>
      </trkpt>
      <trkpt lat="48.138532" lon="16.910293">
        <ele>172.950465</ele>
        <time>2026-05-06T15:00:40.430Z</time>
      </trkpt>
      <trkpt lat="48.138615" lon="16.910516">
        <ele>172.093008</ele>
        <time>2026-05-06T15:00:43.005Z</time>
      </trkpt>
      <trkpt lat="48.138671" lon="16.910764">
        <ele>171.213815</ele>
        <time>2026-05-06T15:00:45.628Z</time>
      </trkpt>
      <trkpt lat="48.138734" lon="16.911200">
        <ele>169.715757</ele>
        <time>2026-05-06T15:00:50.064Z</time>
      </trkpt>
      <trkpt lat="48.138824" lon="16.911413">
        <ele>168.869159</ele>
        <time>2026-05-06T15:00:52.561Z</time>
      </trkpt>
      <trkpt lat="48.139062" lon="16.911681">
        <ele>167.371061</ele>
        <time>2026-05-06T15:00:57.007Z</time>
      </trkpt>
      <trkpt lat="48.139201" lon="16.911741">
        <ele>166.643153</ele>
        <time>2026-05-06T15:00:59.159Z</time>
      </trkpt>
      <trkpt lat="48.139396" lon="16.911751">
        <ele>165.621112</ele>
        <time>2026-05-06T15:01:02.050Z</time>
      </trkpt>
      <trkpt lat="48.140096" lon="16.911708">
        <ele>161.351663</ele>
        <time>2026-05-06T15:01:12.277Z</time>
      </trkpt>
      <trkpt lat="48.140103" lon="16.911793">
        <ele>161.003374</ele>
        <time>2026-05-06T15:01:13.121Z</time>
      </trkpt>
      <trkpt lat="48.140450" lon="16.911747">
        <ele>158.880465</ele>
        <time>2026-05-06T15:01:18.139Z</time>
      </trkpt>
      <trkpt lat="48.140760" lon="16.911630">
        <ele>156.932302</ele>
        <time>2026-05-06T15:01:22.760Z</time>
      </trkpt>
      <trkpt lat="48.141019" lon="16.911442">
        <ele>155.178521</ele>
        <time>2026-05-06T15:01:26.974Z</time>
      </trkpt>
      <trkpt lat="48.141220" lon="16.911224">
        <ele>154.137055</ele>
        <time>2026-05-06T15:01:30.659Z</time>
      </trkpt>
      <trkpt lat="48.141338" lon="16.911063">
        <ele>153.538378</ele>
        <time>2026-05-06T15:01:33.044Z</time>
      </trkpt>
      <trkpt lat="48.141453" lon="16.910818">
        <ele>152.788509</ele>
        <time>2026-05-06T15:01:36.083Z</time>
      </trkpt>
      <trkpt lat="48.141582" lon="16.910794">
        <ele>152.300845</ele>
        <time>2026-05-06T15:01:38.072Z</time>
      </trkpt>
      <trkpt lat="48.141660" lon="16.910777">
        <ele>152.005146</ele>
        <time>2026-05-06T15:01:39.295Z</time>
      </trkpt>
      <trkpt lat="48.141702" lon="16.910707">
        <ele>151.769488</ele>
        <time>2026-05-06T15:01:40.259Z</time>
      </trkpt>
      <trkpt lat="48.141662" lon="16.910341">
        <ele>150.841047</ele>
        <time>2026-05-06T15:01:44.160Z</time>
      </trkpt>
      <trkpt lat="48.141777" lon="16.910249">
        <ele>150.351994</ele>
        <time>2026-05-06T15:01:46.288Z</time>
      </trkpt>
      <trkpt lat="48.142064" lon="16.910104">
        <ele>149.215759</ele>
        <time>2026-05-06T15:01:51.368Z</time>
      </trkpt>
      <trkpt lat="48.142567" lon="16.909984">
        <ele>147.936804</ele>
        <time>2026-05-06T15:02:00.746Z</time>
      </trkpt>
      <trkpt lat="48.142785" lon="16.909928">
        <ele>147.732637</ele>
        <time>2026-05-06T15:02:05.155Z</time>
      </trkpt>
      <trkpt lat="48.143058" lon="16.909817">
        <ele>147.471526</ele>
        <time>2026-05-06T15:02:10.825Z</time>
      </trkpt>
      <trkpt lat="48.143487" lon="16.909575">
        <ele>147.048399</ele>
        <time>2026-05-06T15:02:20.306Z</time>
      </trkpt>
      <trkpt lat="48.143625" lon="16.909570">
        <ele>146.920977</ele>
        <time>2026-05-06T15:02:23.233Z</time>
      </trkpt>
      <trkpt lat="48.143703" lon="16.909762">
        <ele>146.782523</ele>
        <time>2026-05-06T15:02:26.436Z</time>
      </trkpt>
      <trkpt lat="48.143799" lon="16.910057">
        <ele>146.580363</ele>
        <time>2026-05-06T15:02:30.879Z</time>
      </trkpt>
      <trkpt lat="48.144697" lon="16.912292">
        <ele>144.415628</ele>
        <time>2026-05-06T15:03:02.973Z</time>
      </trkpt>
      <trkpt lat="48.144843" lon="16.912655">
        <ele>144.136845</ele>
        <time>2026-05-06T15:03:08.327Z</time>
      </trkpt>
      <trkpt lat="48.144959" lon="16.913005">
        <ele>143.979484</ele>
        <time>2026-05-06T15:03:13.407Z</time>
      </trkpt>
      <trkpt lat="48.145088" lon="16.913724">
        <ele>143.679684</ele>
        <time>2026-05-06T15:03:23.417Z</time>
      </trkpt>
      <trkpt lat="48.145146" lon="16.914253">
        <ele>143.463818</ele>
        <time>2026-05-06T15:03:30.969Z</time>
      </trkpt>
      <trkpt lat="48.145156" lon="16.918585">
        <ele>142.487256</ele>
        <time>2026-05-06T15:04:32.126Z</time>
      </trkpt>
      <trkpt lat="48.145266" lon="16.921791">
        <ele>142.535425</ele>
        <time>2026-05-06T15:05:18.898Z</time>
      </trkpt>
      <trkpt lat="48.145200" lon="16.923286">
        <ele>142.816175</ele>
        <time>2026-05-06T15:05:44.017Z</time>
      </trkpt>
      <trkpt lat="48.145193" lon="16.924157">
        <ele>142.899689</ele>
        <time>2026-05-06T15:05:58.194Z</time>
      </trkpt>
      <trkpt lat="48.145368" lon="16.925115">
        <ele>142.994917</ele>
        <time>2026-05-06T15:06:12.923Z</time>
      </trkpt>
      <trkpt lat="48.145337" lon="16.926873">
        <ele>143.037214</ele>
        <time>2026-05-06T15:06:37.799Z</time>
      </trkpt>
      <trkpt lat="48.145295" lon="16.927449">
        <ele>143.022082</ele>
        <time>2026-05-06T15:06:46.110Z</time>
      </trkpt>
      <trkpt lat="48.145221" lon="16.928785">
        <ele>143.117781</ele>
        <time>2026-05-06T15:07:06.357Z</time>
      </trkpt>
      <trkpt lat="48.145247" lon="16.931044">
        <ele>144.195483</ele>
        <time>2026-05-06T15:07:44.923Z</time>
      </trkpt>
      <trkpt lat="48.145250" lon="16.931435">
        <ele>144.312191</ele>
        <time>2026-05-06T15:07:51.745Z</time>
      </trkpt>
      <trkpt lat="48.145299" lon="16.931892">
        <ele>144.382359</ele>
        <time>2026-05-06T15:07:59.546Z</time>
      </trkpt>
      <trkpt lat="48.145362" lon="16.932180">
        <ele>144.428304</ele>
        <time>2026-05-06T15:08:04.511Z</time>
      </trkpt>
      <trkpt lat="48.145453" lon="16.932451">
        <ele>144.474295</ele>
        <time>2026-05-06T15:08:09.403Z</time>
      </trkpt>
      <trkpt lat="48.146448" lon="16.934659">
        <ele>144.824227</ele>
        <time>2026-05-06T15:08:47.408Z</time>
      </trkpt>
      <trkpt lat="48.146505" lon="16.934866">
        <ele>144.848525</ele>
        <time>2026-05-06T15:08:50.758Z</time>
      </trkpt>
      <trkpt lat="48.147039" lon="16.935760">
        <ele>144.978720</ele>
        <time>2026-05-06T15:09:09.705Z</time>
      </trkpt>
      <trkpt lat="48.147574" lon="16.936655">
        <ele>145.480383</ele>
        <time>2026-05-06T15:09:31.440Z</time>
      </trkpt>
      <trkpt lat="48.147686" lon="16.936842">
        <ele>145.586554</ele>
        <time>2026-05-06T15:09:36.046Z</time>
      </trkpt>
      <trkpt lat="48.147959" lon="16.937300">
        <ele>145.846033</ele>
        <time>2026-05-06T15:09:46.410Z</time>
      </trkpt>
      <trkpt lat="48.148076" lon="16.937504">
        <ele>145.959689</ele>
        <time>2026-05-06T15:09:50.544Z</time>
      </trkpt>
      <trkpt lat="48.148374" lon="16.938193">
        <ele>146.026873</ele>
        <time>2026-05-06T15:10:01.979Z</time>
      </trkpt>
      <trkpt lat="48.148785" lon="16.939253">
        <ele>145.769325</ele>
        <time>2026-05-06T15:10:19.029Z</time>
      </trkpt>
      <trkpt lat="48.149103" lon="16.940125">
        <ele>145.560565</ele>
        <time>2026-05-06T15:10:31.880Z</time>
      </trkpt>
      <trkpt lat="48.148785" lon="16.939253">
        <ele>145.754841</ele>
        <time>2026-05-06T15:10:49.154Z</time>
      </trkpt>
      <trkpt lat="48.148374" lon="16.938193">
        <ele>146.012051</ele>
        <time>2026-05-06T15:11:08.675Z</time>
      </trkpt>
      <trkpt lat="48.148076" lon="16.937504">
        <ele>145.999103</ele>
        <time>2026-05-06T15:11:21.703Z</time>
      </trkpt>
      <trkpt lat="48.147959" lon="16.937300">
        <ele>145.895436</ele>
        <time>2026-05-06T15:11:25.588Z</time>
      </trkpt>
      <trkpt lat="48.147686" lon="16.936842">
        <ele>145.658762</ele>
        <time>2026-05-06T15:11:33.696Z</time>
      </trkpt>
      <trkpt lat="48.147574" lon="16.936655">
        <ele>145.561922</ele>
        <time>2026-05-06T15:11:36.836Z</time>
      </trkpt>
      <trkpt lat="48.146505" lon="16.934866">
        <ele>144.917030</ele>
        <time>2026-05-06T15:12:08.536Z</time>
      </trkpt>
      <trkpt lat="48.146448" lon="16.934659">
        <ele>144.885303</ele>
        <time>2026-05-06T15:12:11.836Z</time>
      </trkpt>
      <trkpt lat="48.145453" lon="16.932451">
        <ele>144.472145</ele>
        <time>2026-05-06T15:12:53.005Z</time>
      </trkpt>
      <trkpt lat="48.145362" lon="16.932180">
        <ele>144.421112</ele>
        <time>2026-05-06T15:12:57.189Z</time>
      </trkpt>
      <trkpt lat="48.145299" lon="16.931892">
        <ele>144.370129</ele>
        <time>2026-05-06T15:13:01.298Z</time>
      </trkpt>
      <trkpt lat="48.145250" lon="16.931435">
        <ele>144.292269</ele>
        <time>2026-05-06T15:13:07.424Z</time>
      </trkpt>
      <trkpt lat="48.145247" lon="16.931044">
        <ele>144.193639</ele>
        <time>2026-05-06T15:13:12.492Z</time>
      </trkpt>
      <trkpt lat="48.145221" lon="16.928785">
        <ele>143.131390</ele>
        <time>2026-05-06T15:13:42.123Z</time>
      </trkpt>
      <trkpt lat="48.145295" lon="16.927449">
        <ele>143.013340</ele>
        <time>2026-05-06T15:14:01.701Z</time>
      </trkpt>
      <trkpt lat="48.145337" lon="16.926873">
        <ele>143.033884</ele>
        <time>2026-05-06T15:14:10.600Z</time>
      </trkpt>
      <trkpt lat="48.145368" lon="16.925115">
        <ele>143.001954</ele>
        <time>2026-05-06T15:14:38.029Z</time>
      </trkpt>
      <trkpt lat="48.145193" lon="16.924157">
        <ele>142.894314</ele>
        <time>2026-05-06T15:14:52.791Z</time>
      </trkpt>
      <trkpt lat="48.145200" lon="16.923286">
        <ele>142.799915</ele>
        <time>2026-05-06T15:15:04.662Z</time>
      </trkpt>
      <trkpt lat="48.145266" lon="16.921791">
        <ele>142.537865</ele>
        <time>2026-05-06T15:15:24.616Z</time>
      </trkpt>
      <trkpt lat="48.145156" lon="16.918585">
        <ele>142.489513</ele>
        <time>2026-05-06T15:16:13.140Z</time>
      </trkpt>
      <trkpt lat="48.145146" lon="16.914253">
        <ele>143.471741</ele>
        <time>2026-05-06T15:17:20.892Z</time>
      </trkpt>
      <trkpt lat="48.145088" lon="16.913724">
        <ele>143.702325</ele>
        <time>2026-05-06T15:17:29.283Z</time>
      </trkpt>
      <trkpt lat="48.144959" lon="16.913005">
        <ele>144.022565</ele>
        <time>2026-05-06T15:17:41.598Z</time>
      </trkpt>
      <trkpt lat="48.144843" lon="16.912655">
        <ele>144.190655</ele>
        <time>2026-05-06T15:17:48.361Z</time>
      </trkpt>
      <trkpt lat="48.143799" lon="16.910057">
        <ele>146.579107</ele>
        <time>2026-05-06T15:18:44.749Z</time>
      </trkpt>
      <trkpt lat="48.143703" lon="16.909762">
        <ele>146.720426</ele>
        <time>2026-05-06T15:18:50.136Z</time>
      </trkpt>
      <trkpt lat="48.143625" lon="16.909570">
        <ele>146.817213</ele>
        <time>2026-05-06T15:18:53.625Z</time>
      </trkpt>
      <trkpt lat="48.143487" lon="16.909575">
        <ele>146.906287</ele>
        <time>2026-05-06T15:18:56.823Z</time>
      </trkpt>
      <trkpt lat="48.143058" lon="16.909817">
        <ele>147.202073</ele>
        <time>2026-05-06T15:19:07.865Z</time>
      </trkpt>
      <trkpt lat="48.142785" lon="16.909928">
        <ele>147.384602</ele>
        <time>2026-05-06T15:19:14.960Z</time>
      </trkpt>
      <trkpt lat="48.142567" lon="16.909984">
        <ele>147.527325</ele>
        <time>2026-05-06T15:19:20.475Z</time>
      </trkpt>
      <trkpt lat="48.142064" lon="16.910104">
        <ele>147.752764</ele>
        <time>2026-05-06T15:19:32.896Z</time>
      </trkpt>
      <trkpt lat="48.141777" lon="16.910249">
        <ele>147.818362</ele>
        <time>2026-05-06T15:19:40.213Z</time>
      </trkpt>
      <trkpt lat="48.141662" lon="16.910341">
        <ele>147.846596</ele>
        <time>2026-05-06T15:19:43.284Z</time>
      </trkpt>
      <trkpt lat="48.141538" lon="16.910413">
        <ele>147.875398</ele>
        <time>2026-05-06T15:19:46.457Z</time>
      </trkpt>
      <trkpt lat="48.141573" lon="16.910011">
        <ele>147.933990</ele>
        <time>2026-05-06T15:19:52.976Z</time>
      </trkpt>
      <trkpt lat="48.141567" lon="16.908937">
        <ele>148.089217</ele>
        <time>2026-05-06T15:20:08.530Z</time>
      </trkpt>
      <trkpt lat="48.141519" lon="16.908194">
        <ele>147.964473</ele>
        <time>2026-05-06T15:20:19.029Z</time>
      </trkpt>
      <trkpt lat="48.141416" lon="16.907396">
        <ele>147.826377</ele>
        <time>2026-05-06T15:20:31.439Z</time>
      </trkpt>
      <trkpt lat="48.141368" lon="16.907157">
        <ele>147.783971</ele>
        <time>2026-05-06T15:20:35.169Z</time>
      </trkpt>
      <trkpt lat="48.141067" lon="16.906080">
        <ele>147.521091</ele>
        <time>2026-05-06T15:20:51.133Z</time>
      </trkpt>
      <trkpt lat="48.140907" lon="16.905574">
        <ele>147.294377</ele>
        <time>2026-05-06T15:20:58.260Z</time>
      </trkpt>
      <trkpt lat="48.140765" lon="16.905142">
        <ele>147.099394</ele>
        <time>2026-05-06T15:21:04.467Z</time>
      </trkpt>
      <trkpt lat="48.140526" lon="16.904402">
        <ele>146.766522</ele>
        <time>2026-05-06T15:21:15.133Z</time>
      </trkpt>
      <trkpt lat="48.140419" lon="16.904078">
        <ele>146.620149</ele>
        <time>2026-05-06T15:21:20.224Z</time>
      </trkpt>
      <trkpt lat="48.140363" lon="16.903908">
        <ele>146.543386</ele>
        <time>2026-05-06T15:21:22.997Z</time>
      </trkpt>
      <trkpt lat="48.140336" lon="16.903733">
        <ele>146.628183</ele>
        <time>2026-05-06T15:21:25.688Z</time>
      </trkpt>
      <trkpt lat="48.140337" lon="16.903518">
        <ele>146.736465</ele>
        <time>2026-05-06T15:21:29.067Z</time>
      </trkpt>
      <trkpt lat="48.140368" lon="16.903373">
        <ele>146.813148</ele>
        <time>2026-05-06T15:21:31.583Z</time>
      </trkpt>
      <trkpt lat="48.140467" lon="16.903338">
        <ele>146.889916</ele>
        <time>2026-05-06T15:21:34.212Z</time>
      </trkpt>
      <trkpt lat="48.140487" lon="16.903189">
        <ele>146.966459</ele>
        <time>2026-05-06T15:21:36.916Z</time>
      </trkpt>
      <trkpt lat="48.140422" lon="16.903102">
        <ele>147.032235</ele>
        <time>2026-05-06T15:21:39.257Z</time>
      </trkpt>
      <trkpt lat="48.140377" lon="16.903102">
        <ele>147.066197</ele>
        <time>2026-05-06T15:21:40.475Z</time>
      </trkpt>
      <trkpt lat="48.140326" lon="16.903151">
        <ele>147.111919</ele>
        <time>2026-05-06T15:21:42.131Z</time>
      </trkpt>
      <trkpt lat="48.140305" lon="16.903237">
        <ele>147.158040</ele>
        <time>2026-05-06T15:21:43.823Z</time>
      </trkpt>
      <trkpt lat="48.140187" lon="16.903246">
        <ele>147.247212</ele>
        <time>2026-05-06T15:21:47.079Z</time>
      </trkpt>
      <trkpt lat="48.139879" lon="16.903263">
        <ele>147.479822</ele>
        <time>2026-05-06T15:21:55.531Z</time>
      </trkpt>
      <trkpt lat="48.139559" lon="16.903289">
        <ele>147.721686</ele>
        <time>2026-05-06T15:22:03.659Z</time>
      </trkpt>
      <trkpt lat="48.139430" lon="16.903301">
        <ele>147.819232</ele>
        <time>2026-05-06T15:22:07.029Z</time>
      </trkpt>
      <trkpt lat="48.139222" lon="16.903321">
        <ele>147.898328</ele>
        <time>2026-05-06T15:22:12.462Z</time>
      </trkpt>
      <trkpt lat="48.138447" lon="16.903633">
        <ele>147.898328</ele>
        <time>2026-05-06T15:22:31.567Z</time>
      </trkpt>
      <trkpt lat="48.137673" lon="16.904261">
        <ele>147.898328</ele>
        <time>2026-05-06T15:22:51.549Z</time>
      </trkpt>
      <trkpt lat="48.137769" lon="16.904529">
        <ele>147.898328</ele>
        <time>2026-05-06T15:22:56.476Z</time>
      </trkpt>
      <trkpt lat="48.137826" lon="16.904556">
        <ele>147.898328</ele>
        <time>2026-05-06T15:22:57.929Z</time>
      </trkpt>
      <trkpt lat="48.137940" lon="16.904493">
        <ele>147.898328</ele>
        <time>2026-05-06T15:23:00.925Z</time>
      </trkpt>
    </trkseg>
  </trk>
</gpx>